GW2039 Weather Reports


Display with metric or nautical units.
time (UTC)temp
F
wind
direction
speed
MPH
gust
MPH
rain 1hr
in
rain 24hr
in
rain mn
in
humidity
%
barometer
mb
20260510173205 74 295 32.0 46.0 0.08 0.08 0.08 82 1012.0
20260510173106 74 281 27.0 40.0 0.07 0.07 0.07 81 1012.5
20260510173009 75 310 21.0 40.0 0.05 0.05 0.05 79 1012.0
20260510172905 75 308 19.0 40.0 0.02 0.02 0.02 79 1012.0
20260510172807 76 284 20.0 42.0 0.02 0.02 0.02 78 1012.3
20260510172708 77 333 22.0 46.0 0.01 0.01 0.01 77 1012.4
20260510172605 77 317 19.0 46.0 0.01 0.01 0.01 76 1011.9
20260510172507 78 316 19.0 46.0 0.00 0.00 0.00 75 1011.4
20260510172405 78 334 22.0 46.0 0.00 0.00 0.00 72 1011.4
20260510172307 79 284 26.0 46.0 0.00 0.00 0.00 70 1011.4
20260510172205 80 306 26.0 46.0 0.00 0.00 0.00 68 1010.9
20260510172105 81 290 26.0 46.0 0.00 0.00 0.00 66 1010.5
20260510172008 82 319 31.0 46.0 0.00 0.00 0.00 64 1010.7
20260510171904 83 266 27.0 46.0 0.00 0.00 0.00 62 1011.2
20260510171804 84 317 24.0 46.0 0.00 0.00 0.00 58 1010.9
20260510171704 85 288 27.0 46.0 0.00 0.00 0.00 56 1011.2
20260510171406 88 308 23.0 39.0 0.00 0.00 0.00 60 1011.0
20260510171305 89 287 14.0 31.0 0.00 0.00 0.00 60 1010.4
20260510171205 89 304 5.0 13.0 0.00 0.00 0.00 59 1009.2
20260510171103 89 306 2.0 5.0 0.00 0.00 0.00 58 1008.8
20260510171007 89 309 0.0 2.0 0.00 0.00 0.00 58 1008.5
20260510170904 89 63 0.0 2.0 0.00 0.00 0.00 58 1008.5
20260510170704 89 64 1.0 2.0 0.00 0.00 0.00 57 1008.5
20260510170506 89 66 0.0 3.0 0.00 0.00 0.00 57 1008.5
20260510170203 89 87 1.0 3.0 0.00 0.00 0.00 57 1008.4
20260510170104 89 59 1.0 3.0 0.00 0.00 0.00 57 1008.5
20260510165904 89 65 1.0 3.0 0.00 0.00 0.00 57 1008.4
20260510165803 89 79 1.0 3.0 0.00 0.00 0.00 57 1008.5
20260510165703 89 91 2.0 3.0 0.00 0.00 0.00 57 1008.5
20260510165506 89 105 1.0 3.0 0.00 0.00 0.00 57 1008.4
20260510165404 89 105 1.0 4.0 0.00 0.00 0.00 57 1008.4
20260510165306 89 88 0.0 4.0 0.00 0.00 0.00 57 1008.3
20260510165203 89 110 1.0 4.0 0.00 0.00 0.00 57 1008.3
20260510165103 89 89 1.0 4.0 0.00 0.00 0.00 57 1008.3
20260510164904 89 130 2.0 4.0 0.00 0.00 0.00 57 1008.2
20260510164803 89 57 2.0 4.0 0.00 0.00 0.00 57 1008.3
20260510164703 89 98 2.0 5.0 0.00 0.00 0.00 57 1008.2
20260510164603 89 80 2.0 5.0 0.00 0.00 0.00 57 1008.3
20260510164506 89 138 2.0 5.0 0.00 0.00 0.00 57 1008.2
20260510164403 89 50 2.0 5.0 0.00 0.00 0.00 57 1008.3
20260510164304 89 56 2.0 5.0 0.00 0.00 0.00 57 1008.3
20260510164204 89 76 2.0 5.0 0.00 0.00 0.00 57 1008.3
20260510163904 89 60 3.0 5.0 0.00 0.00 0.00 57 1008.2
20260510163804 89 76 2.0 4.0 0.00 0.00 0.00 56 1008.3
20260510163703 89 64 2.0 4.0 0.00 0.00 0.00 57 1008.3
20260510163604 89 52 1.0 4.0 0.00 0.00 0.00 57 1008.3
20260510163507 89 80 2.0 4.0 0.00 0.00 0.00 56 1008.3
20260510163404 89 43 2.0 4.0 0.00 0.00 0.00 57 1008.3
20260510163305 89 92 2.0 4.0 0.00 0.00 0.00 57 1008.3
20260510163203 89 109 2.0 4.0 0.00 0.00 0.00 57 1008.3
20260510163103 89 72 2.0 4.0 0.00 0.00 0.00 57 1008.3
20260510163008 89 92 2.0 4.0 0.00 0.00 0.00 57 1008.3
20260510162904 89 69 2.0 3.0 0.00 0.00 0.00 57 1008.4
20260510162703 89 98 1.0 3.0 0.00 0.00 0.00 57 1008.4
20260510162506 89 72 1.0 3.0 0.00 0.00 0.00 57 1008.4
20260510162404 89 73 0.0 2.0 0.00 0.00 0.00 57 1008.5
20260510162306 89 74 0.0 2.0 0.00 0.00 0.00 57 1008.4
20260510162205 89 74 1.0 2.0 0.00 0.00 0.00 57 1008.3
20260510162009 89 109 0.0 2.0 0.00 0.00 0.00 57 1008.3
20260510161904 89 93 1.0 2.0 0.00 0.00 0.00 57 1008.2
20260510161803 89 93 1.0 2.0 0.00 0.00 0.00 57 1008.2
20260510161704 89 90 1.0 2.0 0.00 0.00 0.00 57 1008.2
20260510161606 89 57 1.0 2.0 0.00 0.00 0.00 57 1008.2
20260510161505 89 70 0.0 3.0 0.00 0.00 0.00 57 1008.2
20260510161404 89 107 0.0 3.0 0.00 0.00 0.00 57 1008.1
20260510161304 89 121 0.0 3.0 0.00 0.00 0.00 57 1008.1
20260510161204 89 121 0.0 3.0 0.00 0.00 0.00 57 1008.1
20260510161103 89 121 0.0 3.0 0.00 0.00 0.00 57 1008.1
20260510161006 89 121 0.0 3.0 0.00 0.00 0.00 57 1008.1
20260510160804 89 78 1.0 3.0 0.00 0.00 0.00 57 1008.0
20260510160704 89 76 1.0 3.0 0.00 0.00 0.00 57 1008.1
20260510160505 89 61 1.0 2.0 0.00 0.00 0.00 57 1007.9
20260510160403 89 116 1.0 2.0 0.00 0.00 0.00 57 1007.9
20260510160304 89 69 1.0 2.0 0.00 0.00 0.00 57 1007.7
20260510160204 89 72 0.0 3.0 0.00 0.00 0.00 57 1007.7
20260510160010 89 142 1.0 3.0 0.00 0.00 0.00 57 1007.6
20260510155903 89 104 1.0 3.0 0.00 0.00 0.00 57 1007.5
20260510155703 89 153 0.0 3.0 0.00 0.00 0.00 57 1007.5
20260510155506 89 53 1.0 3.0 0.00 0.00 0.00 57 1007.4
20260510155404 89 109 1.0 3.0 0.00 0.00 0.00 57 1007.4
20260510155205 89 88 1.0 4.0 0.00 0.00 0.00 57 1007.3
20260510155103 89 90 1.0 4.0 0.00 0.00 0.00 57 1007.3
20260510155007 89 72 1.0 4.0 0.00 0.00 0.00 57 1007.3
20260510154805 89 71 1.0 4.0 0.00 0.00 0.00 57 1007.2
20260510154704 89 88 1.0 4.0 0.00 0.00 0.00 57 1007.1
20260510154603 89 67 1.0 4.0 0.00 0.00 0.00 57 1007.1
20260510154506 89 99 2.0 4.0 0.00 0.00 0.00 57 1007.2
20260510154403 89 15 2.0 4.0 0.00 0.00 0.00 57 1007.1
20260510154304 89 67 1.0 4.0 0.00 0.00 0.00 57 1007.0
20260510154204 89 73 2.0 4.0 0.00 0.00 0.00 57 1007.0
20260510154104 89 70 2.0 4.0 0.00 0.00 0.00 57 1007.0
20260510154007 89 65 1.0 4.0 0.00 0.00 0.00 57 1006.8
20260510153903 89 49 1.0 5.0 0.00 0.00 0.00 57 1006.7
20260510153803 89 69 2.0 5.0 0.00 0.00 0.00 57 1006.7
20260510153603 89 77 2.0 5.0 0.00 0.00 0.00 57 1006.6
20260510153506 89 60 2.0 5.0 0.00 0.00 0.00 57 1006.7
20260510153404 89 107 2.0 5.0 0.00 0.00 0.00 57 1006.6
20260510153303 89 62 2.0 5.0 0.00 0.00 0.00 57 1006.5
20260510153204 89 67 1.0 5.0 0.00 0.00 0.00 57 1006.4
20260510153103 89 88 1.0 6.0 0.00 0.00 0.00 57 1006.5
20260510152903 89 10 3.0 6.0 0.00 0.00 0.00 57 1006.4
20260510152804 89 68 3.0 7.0 0.00 0.00 0.00 57 1006.4
20260510152604 89 76 3.0 7.0 0.00 0.00 0.00 57 1006.3
20260510152506 89 85 3.0 7.0 0.00 0.00 0.00 57 1006.3
20260510152405 89 89 3.0 7.0 0.00 0.00 0.00 57 1006.1
20260510152306 89 99 3.0 7.0 0.00 0.00 0.00 57 1006.1
20260510152203 89 124 4.0 7.0 0.00 0.00 0.00 57 1006.1
20260510152006 89 102 3.0 6.0 0.00 0.00 0.00 57 1006.1
20260510151904 89 94 3.0 6.0 0.00 0.00 0.00 57 1006.1
20260510151704 89 97 2.0 6.0 0.00 0.00 0.00 56 1005.9
20260510151603 89 119 2.0 6.0 0.00 0.00 0.00 57 1005.9
20260510151506 89 103 3.0 5.0 0.00 0.00 0.00 56 1005.9
20260510151404 89 86 3.0 5.0 0.00 0.00 0.00 56 1005.8
20260510151303 89 88 2.0 5.0 0.00 0.00 0.00 56 1005.8
20260510151205 89 122 3.0 6.0 0.00 0.00 0.00 56 1005.8
20260510151103 89 82 4.0 7.0 0.00 0.00 0.00 56 1005.8
20260510150904 90 360 2.0 7.0 0.00 0.00 0.00 56 1005.8
20260510150803 90 92 3.0 7.0 0.00 0.00 0.00 56 1005.8
20260510150704 90 93 2.0 7.0 0.00 0.00 0.00 56 1005.8
20260510150403 90 49 3.0 7.0 0.00 0.00 0.00 56 1005.8
20260510150303 90 114 3.0 7.0 0.00 0.00 0.00 56 1005.7
20260510150204 90 114 3.0 7.0 0.00 0.00 0.00 56 1005.7
20260510150103 90 106 3.0 6.0 0.00 0.00 0.00 56 1005.7
20260510150007 90 94 3.0 6.0 0.00 0.00 0.00 56 1005.7
20260510145603 90 94 2.0 5.0 0.00 0.00 0.00 56 1005.8
20260510145507 90 86 2.0 5.0 0.00 0.00 0.00 56 1005.8
20260510145403 90 81 2.0 5.0 0.00 0.00 0.00 56 1005.8
20260510145306 90 63 3.0 5.0 0.00 0.00 0.00 56 1005.8
20260510145203 90 95 3.0 5.0 0.00 0.00 0.00 56 1005.8
20260510145103 90 88 2.0 5.0 0.00 0.00 0.00 56 1005.9
20260510145007 90 120 2.0 5.0 0.00 0.00 0.00 56 1005.9
20260510144905 90 86 3.0 5.0 0.00 0.00 0.00 56 1005.9
20260510144804 90 94 3.0 6.0 0.00 0.00 0.00 56 1005.8
20260510144604 90 87 2.0 6.0 0.00 0.00 0.00 56 1005.8
20260510144509 90 73 2.0 6.0 0.00 0.00 0.00 56 1005.8
20260510144403 90 65 1.0 6.0 0.00 0.00 0.00 56 1005.8
20260510144303 90 76 3.0 6.0 0.00 0.00 0.00 56 1005.8
20260510144212 90 125 3.0 6.0 0.00 0.00 0.00 55 1005.7
20260510144104 90 92 3.0 8.0 0.00 0.00 0.00 55 1005.7
20260510144006 90 86 2.0 8.0 0.00 0.00 0.00 55 1005.7
20260510143904 90 76 2.0 8.0 0.00 0.00 0.00 55 1005.7
20260510143804 90 89 2.0 8.0 0.00 0.00 0.00 55 1005.6
20260510143605 90 71 3.0 8.0 0.00 0.00 0.00 55 1005.6
20260510143505 90 85 3.0 8.0 0.00 0.00 0.00 55 1005.6
20260510143403 90 148 4.0 8.0 0.00 0.00 0.00 55 1005.6
20260510143303 90 104 4.0 8.0 0.00 0.00 0.00 55 1005.5
20260510143204 90 45 3.0 8.0 0.00 0.00 0.00 55 1005.5
20260510143103 90 93 4.0 8.0 0.00 0.00 0.00 55 1005.5
20260510143017 90 113 4.0 8.0 0.00 0.00 0.00 55 1005.5
20260510142904 91 113 4.0 8.0 0.00 0.00 0.00 55 1005.6
20260510142804 91 102 5.0 8.0 0.00 0.00 0.00 55 1005.5
20260510142603 91 123 3.0 8.0 0.00 0.00 0.00 55 1005.5
20260510142505 91 88 4.0 8.0 0.00 0.00 0.00 55 1005.4
20260510142404 91 96 4.0 8.0 0.00 0.00 0.00 55 1005.4
20260510142306 91 94 4.0 8.0 0.00 0.00 0.00 55 1005.4
20260510142204 91 117 5.0 8.0 0.00 0.00 0.00 55 1005.3
20260510142104 91 128 5.0 8.0 0.00 0.00 0.00 55 1005.4
20260510142006 91 111 4.0 8.0 0.00 0.00 0.00 55 1005.4
20260510141905 91 105 3.0 8.0 0.00 0.00 0.00 55 1005.3
20260510141804 91 90 3.0 8.0 0.00 0.00 0.00 55 1005.4
20260510141705 91 122 5.0 8.0 0.00 0.00 0.00 55 1005.4
20260510141506 91 105 5.0 8.0 0.00 0.00 0.00 54 1005.4
20260510141403 91 99 4.0 8.0 0.00 0.00 0.00 54 1005.3
20260510141304 91 90 5.0 8.0 0.00 0.00 0.00 54 1005.3
20260510141104 91 94 3.0 8.0 0.00 0.00 0.00 55 1005.3
20260510141006 91 107 3.0 8.0 0.00 0.00 0.00 54 1005.3
20260510140904 91 133 4.0 8.0 0.00 0.00 0.00 54 1005.3
20260510140805 91 119 3.0 7.0 0.00 0.00 0.00 54 1005.3
20260510140601 91 92 2.0 7.0 0.00 0.00 0.00 54 1005.3
20260510140506 91 115 2.0 7.0 0.00 0.00 0.00 54 1005.3
20260510140405 91 114 3.0 7.0 0.00 0.00 0.00 54 1005.3
20260510140303 91 112 3.0 7.0 0.00 0.00 0.00 54 1005.3
20260510140206 91 100 3.0 7.0 0.00 0.00 0.00 54 1005.3
20260510140104 91 128 4.0 7.0 0.00 0.00 0.00 54 1005.3
20260510135904 91 109 4.0 7.0 0.00 0.00 0.00 54 1005.3
20260510135703 91 106 3.0 8.0 0.00 0.00 0.00 54 1005.3
20260510135505 91 71 3.0 8.0 0.00 0.00 0.00 53 1005.3
20260510135403 91 119 4.0 8.0 0.00 0.00 0.00 53 1005.3
20260510135306 91 90 4.0 8.0 0.00 0.00 0.00 53 1005.3
20260510135204 91 93 4.0 8.0 0.00 0.00 0.00 53 1005.3
20260510135007 91 101 4.0 8.0 0.00 0.00 0.00 53 1005.2
20260510134903 91 101 6.0 8.0 0.00 0.00 0.00 53 1005.3
20260510134803 91 116 5.0 8.0 0.00 0.00 0.00 53 1005.3
20260510134604 92 105 3.0 7.0 0.00 0.00 0.00 53 1005.3
20260510134505 92 144 3.0 7.0 0.00 0.00 0.00 53 1005.4
20260510134404 92 89 4.0 7.0 0.00 0.00 0.00 53 1005.4
20260510134304 92 110 4.0 7.0 0.00 0.00 0.00 53 1005.4
20260510134203 92 96 3.0 7.0 0.00 0.00 0.00 53 1005.5
20260510134104 92 97 3.0 7.0 0.00 0.00 0.00 53 1005.5
20260510134006 92 164 4.0 7.0 0.00 0.00 0.00 53 1005.5
20260510133904 92 137 4.0 7.0 0.00 0.00 0.00 53 1005.4
20260510133803 92 121 3.0 8.0 0.00 0.00 0.00 53 1005.5
20260510133703 92 93 3.0 8.0 0.00 0.00 0.00 53 1005.5
20260510133604 92 101 3.0 8.0 0.00 0.00 0.00 53 1005.5
20260510133505 92 97 3.0 8.0 0.00 0.00 0.00 52 1005.5
20260510133403 92 118 4.0 8.0 0.00 0.00 0.00 53 1005.4
20260510133303 92 74 3.0 8.0 0.00 0.00 0.00 52 1005.4
20260510133104 92 92 4.0 8.0 0.00 0.00 0.00 52 1005.5
20260510132903 92 113 4.0 7.0 0.00 0.00 0.00 52 1005.5
20260510132703 92 96 4.0 7.0 0.00 0.00 0.00 52 1005.4
20260510132604 92 125 5.0 7.0 0.00 0.00 0.00 52 1005.5
20260510132405 92 80 3.0 7.0 0.00 0.00 0.00 52 1005.6
20260510132306 92 116 3.0 7.0 0.00 0.00 0.00 52 1005.6
20260510132204 92 105 3.0 7.0 0.00 0.00 0.00 52 1005.6
20260510132104 92 124 3.0 7.0 0.00 0.00 0.00 52 1005.5
20260510131803 92 97 3.0 7.0 0.00 0.00 0.00 52 1005.6
20260510131704 92 101 3.0 7.0 0.00 0.00 0.00 52 1005.6
20260510131605 92 29 4.0 8.0 0.00 0.00 0.00 52 1005.5
20260510131403 92 101 3.0 8.0 0.00 0.00 0.00 52 1005.5
20260510131304 92 130 2.0 8.0 0.00 0.00 0.00 52 1005.6
20260510131204 92 86 3.0 8.0 0.00 0.00 0.00 52 1005.6
20260510131105 92 100 3.0 8.0 0.00 0.00 0.00 52 1005.6
20260510130904 92 125 4.0 8.0 0.00 0.00 0.00 52 1005.6
20260510130804 92 96 4.0 8.0 0.00 0.00 0.00 52 1005.6
20260510130705 92 86 3.0 8.0 0.00 0.00 0.00 52 1005.6
20260510130605 92 79 3.0 6.0 0.00 0.00 0.00 52 1005.6
20260510130506 92 79 3.0 6.0 0.00 0.00 0.00 52 1005.6
20260510130403 92 111 3.0 6.0 0.00 0.00 0.00 52 1005.5
20260510130104 93 101 3.0 6.0 0.00 0.00 0.00 52 1005.5
20260510130009 93 88 4.0 6.0 0.00 0.00 0.00 52 1005.5
20260510125903 93 111 4.0 6.0 0.00 0.00 0.00 52 1005.4
20260510125804 93 55 3.0 6.0 0.00 0.00 0.00 52 1005.4
20260510125603 93 101 2.0 7.0 0.00 0.00 0.00 51 1005.4
20260510125507 93 99 3.0 9.0 0.00 0.00 0.00 51 1005.4
20260510125404 93 84 4.0 9.0 0.00 0.00 0.00 51 1005.4
20260510125306 93 96 3.0 10.0 0.00 0.00 0.00 51 1005.3
20260510125005 93 105 3.0 10.0 0.00 0.00 0.00 51 1005.2
20260510124903 93 88 4.0 10.0 0.00 0.00 0.00 51 1005.2
20260510124803 93 91 4.0 10.0 0.00 0.00 0.00 51 1005.2
20260510124603 93 91 5.0 10.0 0.00 0.00 0.00 51 1005.0
20260510124304 93 109 4.0 9.0 0.00 0.00 0.00 51 1004.9
20260510124203 93 124 4.0 9.0 0.00 0.00 0.00 51 1004.9
20260510124103 93 102 4.0 9.0 0.00 0.00 0.00 51 1004.9
20260510123806 93 106 4.0 11.0 0.00 0.00 0.00 51 1005.0
20260510123703 93 126 5.0 11.0 0.00 0.00 0.00 50 1005.0
20260510123604 93 113 4.0 12.0 0.00 0.00 0.00 50 1005.0
20260510123403 93 109 6.0 12.0 0.00 0.00 0.00 50 1004.9
20260510123304 93 40 6.0 12.0 0.00 0.00 0.00 50 1005.0
20260510123103 94 63 5.0 12.0 0.00 0.00 0.00 50 1004.8
20260510123017 94 88 6.0 12.0 0.00 0.00 0.00 50 1004.8
20260510122903 94 104 7.0 12.0 0.00 0.00 0.00 50 1004.8
20260510122803 94 89 7.0 12.0 0.00 0.00 0.00 50 1004.7
20260510122704 94 95 6.0 11.0 0.00 0.00 0.00 50 1004.8
20260510122604 94 125 5.0 11.0 0.00 0.00 0.00 50 1004.7
20260510122506 94 123 4.0 11.0 0.00 0.00 0.00 50 1004.8
20260510122306 94 112 4.0 11.0 0.00 0.00 0.00 50 1004.8
20260510122204 94 107 7.0 11.0 0.00 0.00 0.00 50 1004.8
20260510122104 94 113 6.0 11.0 0.00 0.00 0.00 50 1004.8
20260510122007 94 78 5.0 9.0 0.00 0.00 0.00 50 1004.8
20260510121905 94 107 6.0 10.0 0.00 0.00 0.00 50 1004.8
20260510121803 94 96 5.0 10.0 0.00 0.00 0.00 50 1004.8
20260510121704 94 19 5.0 10.0 0.00 0.00 0.00 50 1004.8
20260510121606 94 138 6.0 10.0 0.00 0.00 0.00 50 1004.8
20260510121506 94 83 7.0 10.0 0.00 0.00 0.00 49 1004.9
20260510121403 94 157 6.0 10.0 0.00 0.00 0.00 50 1004.8
20260510121305 94 88 6.0 10.0 0.00 0.00 0.00 50 1004.8
20260510121203 94 106 6.0 10.0 0.00 0.00 0.00 49 1004.8
20260510121104 94 48 6.0 10.0 0.00 0.00 0.00 49 1004.9
20260510121007 94 105 6.0 10.0 0.00 0.00 0.00 49 1004.8
20260510120904 94 48 5.0 11.0 0.00 0.00 0.00 49 1004.8
20260510120803 94 129 4.0 11.0 0.00 0.00 0.00 50 1004.9
20260510120603 94 109 6.0 11.0 0.00 0.00 0.00 49 1004.9
20260510120505 94 117 5.0 11.0 0.00 0.00 0.00 49 1004.9
20260510120403 94 100 6.0 11.0 0.00 0.00 0.00 49 1004.9
20260510120304 94 93 6.0 11.0 0.00 0.00 0.00 49 1004.9
20260510120203 95 83 7.0 11.0 0.00 0.00 0.00 49 1004.9
20260510120105 95 121 6.0 11.0 0.00 0.00 0.00 49 1004.9
20260510120010 95 101 5.0 10.0 0.00 0.00 0.00 49 1005.0
20260510115904 95 67 4.0 10.0 0.00 0.00 0.00 49 1005.0
20260510115807 95 94 5.0 10.0 0.00 0.00 0.00 49 1004.8
20260510115704 95 117 4.0 10.0 0.00 0.00 0.00 49 1005.0
20260510115605 95 94 5.0 10.0 0.00 0.00 0.00 49 1005.0
20260510115509 95 111 7.0 10.0 0.00 0.00 0.00 49 1005.1
20260510115404 95 103 6.0 10.0 0.00 0.00 0.00 49 1005.1
20260510115306 95 63 4.0 10.0 0.00 0.00 0.00 49 1005.1
20260510115204 95 107 5.0 10.0 0.00 0.00 0.00 49 1005.1
20260510115103 95 148 5.0 10.0 0.00 0.00 0.00 49 1005.2
20260510115008 95 106 5.0 11.0 0.00 0.00 0.00 49 1005.2
20260510114905 95 75 6.0 11.0 0.00 0.00 0.00 49 1005.1
20260510114803 95 107 4.0 11.0 0.00 0.00 0.00 48 1005.2
20260510114604 95 76 5.0 11.0 0.00 0.00 0.00 49 1005.3
20260510114403 95 119 6.0 11.0 0.00 0.00 0.00 48 1005.3
20260510114304 95 134 6.0 11.0 0.00 0.00 0.00 48 1005.3
20260510114205 95 94 6.0 11.0 0.00 0.00 0.00 48 1005.2
20260510114104 95 102 5.0 9.0 0.00 0.00 0.00 48 1005.3
20260510114008 95 173 4.0 9.0 0.00 0.00 0.00 48 1005.3
20260510113903 95 80 4.0 9.0 0.00 0.00 0.00 48 1005.3
20260510113805 95 84 5.0 9.0 0.00 0.00 0.00 48 1005.3
20260510113605 95 113 5.0 9.0 0.00 0.00 0.00 48 1005.3
20260510113507 95 113 4.0 9.0 0.00 0.00 0.00 48 1005.3
20260510113404 95 88 3.0 9.0 0.00 0.00 0.00 48 1005.3
20260510113304 95 132 5.0 9.0 0.00 0.00 0.00 48 1005.4
20260510113204 95 98 5.0 9.0 0.00 0.00 0.00 48 1005.3
20260510112904 95 61 4.0 9.0 0.00 0.00 0.00 48 1005.4
20260510112706 95 74 6.0 9.0 0.00 0.00 0.00 47 1005.3
20260510112602 95 104 6.0 9.0 0.00 0.00 0.00 48 1005.4
20260510112506 95 143 6.0 9.0 0.00 0.00 0.00 48 1005.4
20260510112405 95 154 6.0 9.0 0.00 0.00 0.00 47 1005.4
20260510112306 95 104 5.0 9.0 0.00 0.00 0.00 48 1005.5
20260510112101 95 90 4.0 9.0 0.00 0.00 0.00 48 1005.5
20260510112008 95 79 5.0 9.0 0.00 0.00 0.00 47 1005.5
20260510111904 95 97 5.0 9.0 0.00 0.00 0.00 48 1005.6
20260510111806 95 71 4.0 9.0 0.00 0.00 0.00 47 1005.6
20260510111703 95 42 4.0 9.0 0.00 0.00 0.00 48 1005.6
20260510111604 95 114 5.0 9.0 0.00 0.00 0.00 47 1005.6
20260510111508 95 50 6.0 9.0 0.00 0.00 0.00 47 1005.6
20260510111303 96 77 5.0 9.0 0.00 0.00 0.00 47 1005.7
20260510111207 96 90 5.0 9.0 0.00 0.00 0.00 47 1005.7
20260510111104 96 74 5.0 8.0 0.00 0.00 0.00 47 1005.8
20260510111008 96 97 4.0 10.0 0.00 0.00 0.00 47 1005.7
20260510110903 96 87 3.0 10.0 0.00 0.00 0.00 48 1005.8
20260510110806 96 61 2.0 10.0 0.00 0.00 0.00 47 1005.8
20260510110705 96 325 3.0 10.0 0.00 0.00 0.00 47 1005.9
20260510110604 96 115 4.0 10.0 0.00 0.00 0.00 47 1005.9
20260510110507 96 103 3.0 10.0 0.00 0.00 0.00 47 1005.9
20260510110403 96 93 4.0 10.0 0.00 0.00 0.00 47 1006.0
20260510110304 96 56 5.0 10.0 0.00 0.00 0.00 47 1006.0
20260510110203 96 67 5.0 10.0 0.00 0.00 0.00 47 1006.0
20260510110103 96 53 4.0 10.0 0.00 0.00 0.00 47 1006.0
20260510110009 96 67 3.0 10.0 0.00 0.00 0.00 47 1006.0
20260510105905 96 84 4.0 10.0 0.00 0.00 0.00 47 1006.0
20260510105803 96 95 4.0 10.0 0.00 0.00 0.00 47 1006.1
20260510105506 96 84 4.0 10.0 0.00 0.00 0.00 47 1006.1
20260510105405 96 59 4.0 10.0 0.00 0.00 0.00 47 1006.1
20260510105306 96 94 6.0 10.0 0.00 0.00 0.00 47 1006.2
20260510105205 96 112 6.0 10.0 0.00 0.00 0.00 47 1006.2
20260510105102 96 61 5.0 10.0 0.00 0.00 0.00 47 1006.2
20260510104905 96 94 6.0 10.0 0.00 0.00 0.00 47 1006.2
20260510104803 96 46 5.0 9.0 0.00 0.00 0.00 47 1006.3
20260510104703 96 65 4.0 9.0 0.00 0.00 0.00 47 1006.3
20260510104604 96 138 3.0 9.0 0.00 0.00 0.00 48 1006.3
20260510104510 96 107 2.0 9.0 0.00 0.00 0.00 47 1006.3
20260510104403 96 71 4.0 9.0 0.00 0.00 0.00 47 1006.3
20260510104305 96 118 6.0 9.0 0.00 0.00 0.00 47 1006.2
20260510104203 96 122 5.0 9.0 0.00 0.00 0.00 47 1006.3
20260510104106 96 109 4.0 8.0 0.00 0.00 0.00 47 1006.3
20260510103903 96 55 4.0 8.0 0.00 0.00 0.00 47 1006.3
20260510103703 96 61 4.0 6.0 0.00 0.00 0.00 47 1006.3
20260510103605 96 135 5.0 6.0 0.00 0.00 0.00 47 1006.3
20260510103404 96 53 4.0 6.0 0.00 0.00 0.00 47 1006.4
20260510103205 96 123 3.0 7.0 0.00 0.00 0.00 47 1006.4
20260510103105 96 128 3.0 7.0 0.00 0.00 0.00 47 1006.4
20260510103007 96 107 3.0 7.0 0.00 0.00 0.00 47 1006.5
20260510102903 96 103 3.0 7.0 0.00 0.00 0.00 46 1006.6
20260510102803 96 121 3.0 7.0 0.00 0.00 0.00 47 1006.6
20260510102705 96 134 4.0 7.0 0.00 0.00 0.00 46 1006.6
20260510102604 96 100 4.0 7.0 0.00 0.00 0.00 47 1006.6
20260510102508 96 172 4.0 7.0 0.00 0.00 0.00 47 1006.6
20260510102404 96 121 3.0 6.0 0.00 0.00 0.00 47 1006.6
20260510102306 96 115 4.0 6.0 0.00 0.00 0.00 47 1006.6
20260510102205 96 85 4.0 6.0 0.00 0.00 0.00 47 1006.7
20260510102007 96 101 4.0 7.0 0.00 0.00 0.00 47 1006.7
20260510101906 96 88 4.0 9.0 0.00 0.00 0.00 47 1006.7
20260510101803 96 104 3.0 10.0 0.00 0.00 0.00 47 1006.7
20260510101703 96 92 3.0 10.0 0.00 0.00 0.00 47 1006.7
20260510101606 96 101 3.0 10.0 0.00 0.00 0.00 47 1006.7
20260510101507 96 138 4.0 10.0 0.00 0.00 0.00 47 1006.8
20260510101305 96 95 3.0 10.0 0.00 0.00 0.00 47 1006.8
20260510101203 96 103 4.0 10.0 0.00 0.00 0.00 47 1006.8
20260510101007 96 46 6.0 10.0 0.00 0.00 0.00 47 1006.9
20260510100905 96 61 4.0 10.0 0.00 0.00 0.00 47 1006.9
20260510100803 96 31 3.0 9.0 0.00 0.00 0.00 47 1006.9
20260510100705 96 130 5.0 9.0 0.00 0.00 0.00 47 1006.9
20260510100606 96 89 4.0 9.0 0.00 0.00 0.00 47 1006.9
20260510100506 96 76 3.0 7.0 0.00 0.00 0.00 47 1007.0
20260510100407 96 80 2.0 7.0 0.00 0.00 0.00 47 1007.0
20260510100305 96 141 3.0 9.0 0.00 0.00 0.00 47 1007.0
20260510100105 96 80 5.0 9.0 0.00 0.00 0.00 47 1007.0
20260510100007 96 54 5.0 9.0 0.00 0.00 0.00 47 1007.1
20260510095906 96 94 4.0 9.0 0.00 0.00 0.00 48 1007.1
20260510095803 96 69 3.0 9.0 0.00 0.00 0.00 48 1007.1
20260510095701 96 148 3.0 10.0 0.00 0.00 0.00 48 1007.1
20260510095605 96 120 4.0 10.0 0.00 0.00 0.00 48 1007.1
20260510095508 96 103 5.0 10.0 0.00 0.00 0.00 48 1007.1
20260510095305 96 72 5.0 10.0 0.00 0.00 0.00 48 1007.2
20260510095203 96 60 4.0 10.0 0.00 0.00 0.00 47 1007.2
20260510095103 95 306 5.0 10.0 0.00 0.00 0.00 47 1007.1
20260510095007 95 110 5.0 10.0 0.00 0.00 0.00 47 1007.1
20260510094806 96 39 4.0 8.0 0.00 0.00 0.00 47 1007.1
20260510094605 96 86 4.0 8.0 0.00 0.00 0.00 47 1007.1
20260510094507 96 109 5.0 8.0 0.00 0.00 0.00 47 1007.2
20260510094405 96 154 5.0 8.0 0.00 0.00 0.00 47 1007.2
20260510094304 96 93 4.0 8.0 0.00 0.00 0.00 47 1007.2
20260510094106 96 101 1.0 11.0 0.00 0.00 0.00 47 1007.3
20260510094008 96 5 2.0 11.0 0.00 0.00 0.00 47 1007.3
20260510093903 95 155 3.0 11.0 0.00 0.00 0.00 47 1007.4
20260510093703 95 157 3.0 11.0 0.00 0.00 0.00 48 1007.4
20260510093603 95 169 3.0 11.0 0.00 0.00 0.00 47 1007.4
20260510093505 95 175 5.0 12.0 0.00 0.00 0.00 47 1007.5
20260510093403 95 137 7.0 12.0 0.00 0.00 0.00 47 1007.4
20260510093307 96 115 5.0 12.0 0.00 0.00 0.00 48 1007.4
20260510093203 96 146 5.0 12.0 0.00 0.00 0.00 47 1007.5
20260510093105 95 182 6.0 12.0 0.00 0.00 0.00 47 1007.4
20260510093008 95 172 6.0 12.0 0.00 0.00 0.00 47 1007.5
20260510092903 95 194 5.0 12.0 0.00 0.00 0.00 47 1007.5
20260510092803 95 125 6.0 12.0 0.00 0.00 0.00 47 1007.5
20260510092704 95 70 7.0 12.0 0.00 0.00 0.00 47 1007.5
20260510092603 95 132 7.0 10.0 0.00 0.00 0.00 47 1007.5
20260510092406 96 140 6.0 10.0 0.00 0.00 0.00 47 1007.7
20260510092306 96 145 5.0 10.0 0.00 0.00 0.00 47 1007.6
20260510092206 96 152 3.0 9.0 0.00 0.00 0.00 46 1007.6
20260510092006 96 153 3.0 9.0 0.00 0.00 0.00 47 1007.7
20260510091904 96 151 4.0 9.0 0.00 0.00 0.00 47 1007.7
20260510091804 96 165 5.0 9.0 0.00 0.00 0.00 47 1007.7
20260510091706 96 113 6.0 9.0 0.00 0.00 0.00 47 1007.7
20260510091603 95 130 5.0 9.0 0.00 0.00 0.00 46 1007.7
20260510091405 96 117 5.0 9.0 0.00 0.00 0.00 47 1007.7
20260510091305 95 130 4.0 9.0 0.00 0.00 0.00 48 1007.7
20260510091205 95 172 1.0 9.0 0.00 0.00 0.00 48 1007.7
20260510091105 95 188 2.0 9.0 0.00 0.00 0.00 47 1007.8
20260510090905 95 170 3.0 9.0 0.00 0.00 0.00 47 1007.8
20260510090803 95 68 4.0 9.0 0.00 0.00 0.00 47 1007.8
20260510090704 95 60 4.0 9.0 0.00 0.00 0.00 47 1007.8
20260510090606 95 111 3.0 11.0 0.00 0.00 0.00 47 1008.0
20260510090505 95 136 4.0 11.0 0.00 0.00 0.00 47 1007.9
20260510090304 95 93 2.0 11.0 0.00 0.00 0.00 47 1008.0
20260510090006 95 134 6.0 12.0 0.00 0.00 0.00 47 1008.1
20260510085902 95 123 7.0 12.0 0.00 0.00 0.00 47 1008.1
20260510085804 95 102 5.0 12.0 0.00 0.00 0.00 47 1008.1
20260510085704 95 128 3.0 12.0 0.00 0.00 0.00 47 1008.0
20260510085506 95 132 5.0 12.0 0.00 0.00 0.00 48 1008.1
20260510085306 95 123 7.0 12.0 0.00 0.00 0.00 47 1008.1
20260510085201 95 119 6.0 12.0 0.00 0.00 0.00 47 1008.1
20260510085102 95 135 5.0 10.0 0.00 0.00 0.00 47 1008.1
20260510085006 95 120 5.0 10.0 0.00 0.00 0.00 47 1008.1
20260510084803 95 136 4.0 10.0 0.00 0.00 0.00 47 1008.1
20260510084702 95 98 5.0 10.0 0.00 0.00 0.00 47 1008.2
20260510084602 95 112 7.0 10.0 0.00 0.00 0.00 47 1008.1
20260510084504 95 129 7.0 11.0 0.00 0.00 0.00 47 1008.2
20260510084402 95 140 8.0 11.0 0.00 0.00 0.00 47 1008.3
20260510084302 95 132 8.0 11.0 0.00 0.00 0.00 47 1008.2
20260510084204 95 112 6.0 11.0 0.00 0.00 0.00 48 1008.3
20260510084005 95 133 2.0 11.0 0.00 0.00 0.00 47 1008.3
20260510083902 95 50 4.0 11.0 0.00 0.00 0.00 47 1008.3
20260510083603 95 98 5.0 9.0 0.00 0.00 0.00 47 1008.4
20260510083506 95 101 4.0 9.0 0.00 0.00 0.00 47 1008.3
20260510083402 95 153 4.0 10.0 0.00 0.00 0.00 47 1008.4
20260510083006 95 155 5.0 10.0 0.00 0.00 0.00 47 1008.4
20260510082904 95 140 5.0 10.0 0.00 0.00 0.00 48 1008.3
20260510082804 95 167 5.0 10.0 0.00 0.00 0.00 48 1008.4
20260510082702 94 163 6.0 10.0 0.00 0.00 0.00 48 1008.3
20260510082603 94 148 7.0 10.0 0.00 0.00 0.00 48 1008.4
20260510082507 94 159 7.0 10.0 0.00 0.00 0.00 48 1008.3
20260510082403 94 167 5.0 10.0 0.00 0.00 0.00 49 1008.3
20260510082306 94 169 3.0 8.0 0.00 0.00 0.00 48 1008.3
20260510082202 94 186 4.0 8.0 0.00 0.00 0.00 48 1008.3
20260510082103 94 123 4.0 11.0 0.00 0.00 0.00 48 1008.3
20260510081902 94 121 3.0 11.0 0.00 0.00 0.00 48 1008.4
20260510081802 94 93 4.0 11.0 0.00 0.00 0.00 48 1008.3
20260510081702 94 106 5.0 11.0 0.00 0.00 0.00 48 1008.3
20260510081602 94 124 5.0 11.0 0.00 0.00 0.00 48 1008.4
20260510081505 94 87 5.0 11.0 0.00 0.00 0.00 48 1008.4
20260510081303 94 117 5.0 11.0 0.00 0.00 0.00 48 1008.4
20260510081202 94 104 4.0 11.0 0.00 0.00 0.00 48 1008.5
20260510081103 94 113 5.0 11.0 0.00 0.00 0.00 48 1008.5
20260510081005 94 153 5.0 11.0 0.00 0.00 0.00 48 1008.5
20260510080902 94 106 4.0 11.0 0.00 0.00 0.00 48 1008.5
20260510080802 94 120 5.0 11.0 0.00 0.00 0.00 48 1008.5
20260510080703 94 125 7.0 11.0 0.00 0.00 0.00 48 1008.5
20260510080602 94 107 8.0 11.0 0.00 0.00 0.00 48 1008.5
20260510080504 94 142 6.0 11.0 0.00 0.00 0.00 48 1008.5
20260510080403 94 88 5.0 11.0 0.00 0.00 0.00 48 1008.5
20260510080204 94 88 7.0 11.0 0.00 0.00 0.00 48 1008.6
20260510080107 94 93 8.0 11.0 0.00 0.00 0.00 48 1008.6
20260510080011 94 98 6.0 11.0 0.00 0.00 0.00 48 1008.6
20260510075704 94 119 5.0 9.0 0.00 0.00 0.00 48 1008.6
20260510075603 94 88 6.0 9.0 0.00 0.00 0.00 48 1008.6
20260510075404 94 169 4.0 10.0 0.00 0.00 0.00 49 1008.6
20260510075306 94 141 4.0 10.0 0.00 0.00 0.00 49 1008.6
20260510075204 94 155 6.0 10.0 0.00 0.00 0.00 49 1008.7
20260510075104 94 110 6.0 10.0 0.00 0.00 0.00 49 1008.7
20260510075008 94 95 5.0 10.0 0.00 0.00 0.00 49 1008.8
20260510074904 94 109 6.0 10.0 0.00 0.00 0.00 49 1008.7
20260510074804 94 90 5.0 10.0 0.00 0.00 0.00 48 1008.7
20260510074705 94 70 3.0 11.0 0.00 0.00 0.00 49 1008.8
20260510074603 94 107 4.0 11.0 0.00 0.00 0.00 49 1008.6
20260510074506 94 92 4.0 11.0 0.00 0.00 0.00 48 1008.7
20260510074403 94 33 5.0 11.0 0.00 0.00 0.00 48 1008.8
20260510074304 94 90 4.0 11.0 0.00 0.00 0.00 48 1008.8
20260510074203 94 32 6.0 11.0 0.00 0.00 0.00 48 1008.8
20260510074104 94 68 7.0 11.0 0.00 0.00 0.00 48 1008.8
20260510073903 94 94 6.0 11.0 0.00 0.00 0.00 48 1008.8
20260510073603 94 114 6.0 11.0 0.00 0.00 0.00 48 1008.7
20260510073505 94 126 3.0 10.0 0.00 0.00 0.00 49 1008.7
20260510073305 94 96 6.0 10.0 0.00 0.00 0.00 48 1008.8
20260510073202 94 94 5.0 10.0 0.00 0.00 0.00 48 1008.8
20260510073007 94 126 3.0 10.0 0.00 0.00 0.00 49 1008.9
20260510072904 94 122 5.0 10.0 0.00 0.00 0.00 49 1008.9
20260510072803 94 121 6.0 10.0 0.00 0.00 0.00 48 1008.9
20260510072703 94 81 5.0 9.0 0.00 0.00 0.00 48 1008.9
20260510072606 94 82 5.0 9.0 0.00 0.00 0.00 48 1008.9
20260510072505 94 61 3.0 9.0 0.00 0.00 0.00 48 1008.9
20260510072403 94 73 4.0 9.0 0.00 0.00 0.00 48 1008.9
20260510072305 94 107 5.0 9.0 0.00 0.00 0.00 48 1008.9
20260510072205 94 78 5.0 9.0 0.00 0.00 0.00 48 1008.9
20260510072104 94 85 4.0 9.0 0.00 0.00 0.00 49 1008.9
20260510071905 94 53 4.0 8.0 0.00 0.00 0.00 49 1009.0
20260510071805 94 92 3.0 7.0 0.00 0.00 0.00 49 1009.1
20260510071604 94 93 4.0 7.0 0.00 0.00 0.00 48 1009.2
20260510071507 94 45 5.0 7.0 0.00 0.00 0.00 48 1009.3
20260510071402 94 94 5.0 8.0 0.00 0.00 0.00 48 1009.2
20260510071304 94 79 3.0 8.0 0.00 0.00 0.00 48 1009.3
20260510071104 94 180 3.0 10.0 0.00 0.00 0.00 49 1009.3
20260510071007 94 57 4.0 10.0 0.00 0.00 0.00 49 1009.3
20260510070903 94 68 5.0 10.0 0.00 0.00 0.00 48 1009.3
20260510070804 94 183 5.0 10.0 0.00 0.00 0.00 49 1009.4
20260510070705 94 113 5.0 10.0 0.00 0.00 0.00 49 1009.4
20260510070605 94 181 6.0 10.0 0.00 0.00 0.00 49 1009.4
20260510070402 94 39 6.0 10.0 0.00 0.00 0.00 49 1009.5
20260510070304 94 85 4.0 10.0 0.00 0.00 0.00 49 1009.5
20260510070204 94 78 3.0 8.0 0.00 0.00 0.00 49 1009.4
20260510070009 94 103 4.0 8.0 0.00 0.00 0.00 49 1009.5
20260510065903 94 115 4.0 8.0 0.00 0.00 0.00 49 1009.5
20260510065804 94 101 5.0 8.0 0.00 0.00 0.00 49 1009.6
20260510065703 94 136 4.0 8.0 0.00 0.00 0.00 49 1009.6
20260510065601 94 180 3.0 8.0 0.00 0.00 0.00 49 1009.6
20260510065509 94 146 3.0 8.0 0.00 0.00 0.00 49 1009.6
20260510065403 93 154 3.0 8.0 0.00 0.00 0.00 49 1009.6
20260510065306 93 173 3.0 8.0 0.00 0.00 0.00 49 1009.6
20260510065203 93 181 3.0 8.0 0.00 0.00 0.00 49 1009.7
20260510065103 93 120 4.0 8.0 0.00 0.00 0.00 48 1009.7
20260510065007 93 128 5.0 8.0 0.00 0.00 0.00 48 1009.7
20260510064906 93 141 4.0 8.0 0.00 0.00 0.00 49 1009.7
20260510064805 93 108 4.0 7.0 0.00 0.00 0.00 49 1009.7
20260510064704 93 57 3.0 7.0 0.00 0.00 0.00 49 1009.7
20260510064403 93 69 3.0 9.0 0.00 0.00 0.00 49 1009.7
20260510064304 93 119 2.0 9.0 0.00 0.00 0.00 49 1009.7
20260510064206 93 78 2.0 9.0 0.00 0.00 0.00 49 1009.8
20260510064104 93 81 2.0 9.0 0.00 0.00 0.00 48 1009.8
20260510064009 93 106 2.0 9.0 0.00 0.00 0.00 49 1009.8
20260510063905 93 163 2.0 9.0 0.00 0.00 0.00 49 1009.8
20260510063805 93 194 2.0 9.0 0.00 0.00 0.00 49 1009.8
20260510063706 93 176 4.0 9.0 0.00 0.00 0.00 49 1009.8
20260510063606 93 103 5.0 9.0 0.00 0.00 0.00 48 1009.8
20260510063507 93 159 4.0 9.0 0.00 0.00 0.00 49 1009.8
20260510063303 92 109 3.0 9.0 0.00 0.00 0.00 49 1009.8
20260510063203 93 315 4.0 9.0 0.00 0.00 0.00 49 1009.8
20260510063007 92 107 5.0 9.0 0.00 0.00 0.00 49 1009.7
20260510062903 93 109 5.0 9.0 0.00 0.00 0.00 49 1009.8
20260510062803 92 153 4.0 8.0 0.00 0.00 0.00 49 1009.8
20260510062704 92 67 5.0 8.0 0.00 0.00 0.00 49 1009.8
20260510062604 93 64 5.0 8.0 0.00 0.00 0.00 49 1009.8
20260510062506 92 98 4.0 8.0 0.00 0.00 0.00 50 1009.8
20260510062307 92 51 4.0 7.0 0.00 0.00 0.00 49 1009.8
20260510062205 92 14 4.0 7.0 0.00 0.00 0.00 50 1009.8
20260510062105 92 82 3.0 8.0 0.00 0.00 0.00 50 1009.8
20260510062008 92 59 3.0 8.0 0.00 0.00 0.00 50 1009.9
20260510061904 92 138 3.0 8.0 0.00 0.00 0.00 50 1009.9
20260510061804 92 138 3.0 8.0 0.00 0.00 0.00 50 1009.9
20260510061701 92 55 2.0 8.0 0.00 0.00 0.00 50 1009.9
20260510061605 92 114 2.0 8.0 0.00 0.00 0.00 50 1009.9
20260510061506 92 112 4.0 8.0 0.00 0.00 0.00 51 1009.9
20260510061406 92 152 3.0 8.0 0.00 0.00 0.00 50 1009.9
20260510061303 92 67 3.0 8.0 0.00 0.00 0.00 50 1010.0
20260510061207 92 42 3.0 8.0 0.00 0.00 0.00 50 1010.0
20260510061106 92 53 3.0 8.0 0.00 0.00 0.00 50 1010.0
20260510061010 92 80 4.0 8.0 0.00 0.00 0.00 51 1010.0
20260510060905 92 91 4.0 8.0 0.00 0.00 0.00 51 1010.0
20260510060806 91 78 3.0 8.0 0.00 0.00 0.00 51 1010.0
20260510060703 91 69 3.0 8.0 0.00 0.00 0.00 51 1010.0
20260510060605 91 122 4.0 8.0 0.00 0.00 0.00 51 1010.0
20260510060507 91 93 4.0 8.0 0.00 0.00 0.00 52 1010.0
20260510060404 91 71 4.0 6.0 0.00 0.00 0.00 52 1009.9
20260510060309 91 69 3.0 7.0 0.00 0.00 0.00 52 1009.9
20260510060203 91 103 2.0 5.0 0.00 0.00 0.00 52 1009.9
20260510060105 91 76 3.0 7.0 0.00 0.00 0.00 52 1010.1
20260510060004 91 62 4.0 8.0 0.00 0.00 0.00 52 1010.0
20260510055904 91 78 3.0 8.0 0.00 0.00 0.00 52 1010.0
20260510055803 91 92 3.0 8.0 0.00 0.00 0.00 52 1010.1
20260510055704 91 138 4.0 8.0 0.00 0.00 0.00 51 1010.0
20260510055602 91 131 4.0 8.0 0.00 0.00 0.00 52 1010.1
20260510055505 91 163 3.0 8.0 0.00 0.00 0.00 52 1010.1
20260510055306 91 119 5.0 8.0 0.00 0.00 0.00 52 1010.0
20260510055202 91 161 4.0 8.0 0.00 0.00 0.00 52 1010.1
20260510055005 91 113 3.0 8.0 0.00 0.00 0.00 53 1010.1
20260510054902 91 121 3.0 8.0 0.00 0.00 0.00 52 1010.1
20260510054703 91 143 4.0 8.0 0.00 0.00 0.00 52 1010.1
20260510054602 91 80 5.0 8.0 0.00 0.00 0.00 52 1010.1
20260510054507 91 105 3.0 7.0 0.00 0.00 0.00 52 1010.2
20260510054404 91 59 2.0 7.0 0.00 0.00 0.00 53 1010.2
20260510054305 91 102 3.0 7.0 0.00 0.00 0.00 53 1010.1
20260510054204 90 170 4.0 7.0 0.00 0.00 0.00 53 1010.2
20260510054105 90 180 4.0 7.0 0.00 0.00 0.00 53 1010.2
20260510054016 90 146 4.0 7.0 0.00 0.00 0.00 53 1010.2
20260510053903 90 132 4.0 7.0 0.00 0.00 0.00 54 1010.1
20260510053804 90 163 3.0 7.0 0.00 0.00 0.00 54 1010.1
20260510053702 90 172 3.0 7.0 0.00 0.00 0.00 53 1010.2
20260510053603 90 117 4.0 7.0 0.00 0.00 0.00 54 1010.2
20260510053506 90 160 4.0 7.0 0.00 0.00 0.00 53 1010.2
20260510053402 90 126 3.0 7.0 0.00 0.00 0.00 54 1010.3
20260510053305 90 167 3.0 7.0 0.00 0.00 0.00 53 1010.2
20260510053204 90 115 2.0 7.0 0.00 0.00 0.00 53 1010.2
20260510053006 90 162 2.0 7.0 0.00 0.00 0.00 54 1010.2
20260510052903 90 178 3.0 8.0 0.00 0.00 0.00 54 1010.3
20260510052803 90 149 3.0 8.0 0.00 0.00 0.00 54 1010.3
20260510052704 90 96 4.0 8.0 0.00 0.00 0.00 54 1010.2
20260510052604 90 142 4.0 8.0 0.00 0.00 0.00 54 1010.3
20260510052506 90 112 3.0 9.0 0.00 0.00 0.00 54 1010.3
20260510052204 89 164 4.0 9.0 0.00 0.00 0.00 55 1010.3
20260510052107 89 100 4.0 9.0 0.00 0.00 0.00 55 1010.3
20260510052008 89 150 3.0 9.0 0.00 0.00 0.00 55 1010.3
20260510051904 89 92 5.0 9.0 0.00 0.00 0.00 55 1010.2
20260510051805 89 134 6.0 9.0 0.00 0.00 0.00 55 1010.2
20260510051703 89 121 6.0 9.0 0.00 0.00 0.00 55 1010.2
20260510051606 89 125 4.0 9.0 0.00 0.00 0.00 55 1010.2
20260510051506 89 133 3.0 8.0 0.00 0.00 0.00 55 1010.2
20260510051403 89 94 5.0 8.0 0.00 0.00 0.00 55 1010.3
20260510051303 89 129 5.0 8.0 0.00 0.00 0.00 55 1010.2
20260510051202 89 130 5.0 8.0 0.00 0.00 0.00 55 1010.3
20260510051105 89 150 5.0 8.0 0.00 0.00 0.00 55 1010.3
20260510050904 89 86 3.0 9.0 0.00 0.00 0.00 55 1010.3
20260510050804 89 136 4.0 9.0 0.00 0.00 0.00 55 1010.3
20260510050506 89 171 5.0 9.0 0.00 0.00 0.00 56 1010.4
20260510050407 89 103 4.0 9.0 0.00 0.00 0.00 56 1010.5
20260510050305 89 146 3.0 9.0 0.00 0.00 0.00 56 1010.4
20260510050205 89 184 5.0 9.0 0.00 0.00 0.00 56 1010.4
20260510050104 89 154 6.0 9.0 0.00 0.00 0.00 55 1010.4
20260510050009 89 107 5.0 9.0 0.00 0.00 0.00 55 1010.4
20260510045905 89 101 5.0 9.0 0.00 0.00 0.00 55 1010.4
20260510045803 89 120 4.0 9.0 0.00 0.00 0.00 56 1010.4
20260510045704 89 129 4.0 9.0 0.00 0.00 0.00 56 1010.4
20260510045604 89 167 5.0 9.0 0.00 0.00 0.00 56 1010.4
20260510045504 88 130 5.0 9.0 0.00 0.00 0.00 56 1010.4
20260510045404 88 189 4.0 9.0 0.00 0.00 0.00 56 1010.4
20260510045202 88 213 5.0 9.0 0.00 0.00 0.00 56 1010.3
20260510044903 88 136 5.0 9.0 0.00 0.00 0.00 56 1010.4
20260510044803 88 126 5.0 9.0 0.00 0.00 0.00 57 1010.2
20260510044704 88 123 4.0 9.0 0.00 0.00 0.00 57 1010.3
20260510044604 88 146 4.0 9.0 0.00 0.00 0.00 57 1010.3
20260510044404 88 132 4.0 9.0 0.00 0.00 0.00 57 1010.3
20260510044305 88 115 5.0 9.0 0.00 0.00 0.00 57 1010.3
20260510044203 88 135 6.0 9.0 0.00 0.00 0.00 57 1010.3
20260510044102 88 176 6.0 9.0 0.00 0.00 0.00 56 1010.3
20260510044008 88 160 7.0 9.0 0.00 0.00 0.00 56 1010.4
20260510043902 88 155 5.0 10.0 0.00 0.00 0.00 57 1010.3
20260510043804 88 171 4.0 9.0 0.00 0.00 0.00 57 1010.3
20260510043703 88 157 6.0 9.0 0.00 0.00 0.00 56 1010.3
20260510043602 88 150 6.0 9.0 0.00 0.00 0.00 57 1010.3
20260510043505 88 171 6.0 11.0 0.00 0.00 0.00 57 1010.3
20260510043205 87 167 6.0 9.0 0.00 0.00 0.00 57 1010.4
20260510043007 87 141 6.0 10.0 0.00 0.00 0.00 57 1010.3
20260510042905 87 148 6.0 10.0 0.00 0.00 0.00 57 1010.4
20260510042705 87 129 5.0 10.0 0.00 0.00 0.00 57 1010.3
20260510042605 87 167 6.0 10.0 0.00 0.00 0.00 57 1010.3
20260510042508 87 179 6.0 10.0 0.00 0.00 0.00 57 1010.3
20260510042404 87 182 7.0 10.0 0.00 0.00 0.00 57 1010.2
20260510042306 87 175 6.0 10.0 0.00 0.00 0.00 57 1010.2
20260510042203 87 169 6.0 10.0 0.00 0.00 0.00 57 1010.2
20260510042104 87 168 7.0 10.0 0.00 0.00 0.00 57 1010.2
20260510042007 87 169 6.0 11.0 0.00 0.00 0.00 57 1010.2
20260510041903 87 173 5.0 9.0 0.00 0.00 0.00 57 1010.3
20260510041804 87 163 6.0 11.0 0.00 0.00 0.00 57 1010.2
20260510041705 87 163 6.0 11.0 0.00 0.00 0.00 57 1010.3
20260510041603 87 130 7.0 11.0 0.00 0.00 0.00 57 1010.2
20260510041504 87 169 7.0 11.0 0.00 0.00 0.00 57 1010.1
20260510041402 87 151 7.0 11.0 0.00 0.00 0.00 57 1010.2
20260510041303 87 131 7.0 11.0 0.00 0.00 0.00 57 1010.2
20260510041204 87 130 7.0 11.0 0.00 0.00 0.00 58 1010.2
20260510041102 87 154 7.0 11.0 0.00 0.00 0.00 57 1010.2
20260510041006 87 144 7.0 12.0 0.00 0.00 0.00 57 1010.2
20260510040904 87 192 6.0 11.0 0.00 0.00 0.00 57 1010.2
20260510040804 87 173 7.0 11.0 0.00 0.00 0.00 57 1010.2
20260510040604 87 162 5.0 11.0 0.00 0.00 0.00 58 1010.2
20260510040304 87 129 7.0 12.0 0.00 0.00 0.00 57 1010.2
20260510040204 87 117 7.0 12.0 0.00 0.00 0.00 58 1010.2
20260510040007 87 143 6.0 13.0 0.00 0.00 0.00 57 1010.2
20260510035903 87 128 7.0 13.0 0.00 0.00 0.00 57 1010.2
20260510035804 87 174 8.0 13.0 0.00 0.00 0.00 58 1010.2
20260510035704 87 186 7.0 13.0 0.00 0.00 0.00 57 1010.2
20260510035602 87 167 9.0 13.0 0.00 0.00 0.00 57 1010.2
20260510035506 87 167 10.0 13.0 0.00 0.00 0.00 57 1010.3
20260510035203 87 121 5.0 10.0 0.00 0.00 0.00 59 1010.2
20260510035103 86 120 5.0 10.0 0.00 0.00 0.00 59 1010.2
20260510035006 86 149 5.0 11.0 0.00 0.00 0.00 59 1010.1
20260510034705 86 202 6.0 11.0 0.00 0.00 0.00 59 1010.1
20260510034604 86 138 6.0 11.0 0.00 0.00 0.00 59 1010.1
20260510034403 86 159 4.0 11.0 0.00 0.00 0.00 59 1010.1
20260510034303 86 132 6.0 11.0 0.00 0.00 0.00 59 1010.1
20260510034201 86 169 8.0 11.0 0.00 0.00 0.00 59 1010.1
20260510034118 86 172 6.0 11.0 0.00 0.00 0.00 59 1010.0
20260510034007 86 175 5.0 9.0 0.00 0.00 0.00 60 1010.0
20260510033804 86 207 5.0 9.0 0.00 0.00 0.00 60 1009.9
20260510033702 86 162 5.0 9.0 0.00 0.00 0.00 60 1010.0
20260510033603 86 177 6.0 9.0 0.00 0.00 0.00 60 1010.1
20260510033506 86 151 6.0 9.0 0.00 0.00 0.00 60 1010.1
20260510033404 86 190 4.0 8.0 0.00 0.00 0.00 60 1010.1
20260510033304 86 132 4.0 8.0 0.00 0.00 0.00 60 1010.1
20260510033203 86 169 5.0 8.0 0.00 0.00 0.00 60 1010.0
20260510033104 86 169 5.0 9.0 0.00 0.00 0.00 60 1010.0
20260510033007 86 181 4.0 8.0 0.00 0.00 0.00 61 1009.9
20260510032903 86 203 3.0 8.0 0.00 0.00 0.00 61 1010.0
20260510032804 86 130 3.0 8.0 0.00 0.00 0.00 61 1010.0
20260510032704 86 123 4.0 8.0 0.00 0.00 0.00 61 1009.9
20260510032604 86 182 4.0 8.0 0.00 0.00 0.00 61 1010.0
20260510032506 86 153 4.0 8.0 0.00 0.00 0.00 61 1009.9
20260510032402 86 132 4.0 8.0 0.00 0.00 0.00 61 1010.0
20260510032306 85 133 2.0 8.0 0.00 0.00 0.00 61 1009.9
20260510032203 85 175 2.0 8.0 0.00 0.00 0.00 61 1009.9
20260510032102 85 147 3.0 8.0 0.00 0.00 0.00 61 1009.9
20260510031903 85 138 4.0 9.0 0.00 0.00 0.00 61 1010.0
20260510031704 85 122 4.0 10.0 0.00 0.00 0.00 61 1010.0
20260510031602 85 144 4.0 10.0 0.00 0.00 0.00 61 1009.9
20260510031404 85 165 4.0 10.0 0.00 0.00 0.00 61 1009.8
20260510031307 85 139 6.0 10.0 0.00 0.00 0.00 61 1009.9
20260510031205 85 132 6.0 10.0 0.00 0.00 0.00 61 1009.9
20260510031105 85 98 6.0 10.0 0.00 0.00 0.00 61 1009.8
20260510031006 85 120 6.0 10.0 0.00 0.00 0.00 61 1009.8
20260510030902 85 132 6.0 9.0 0.00 0.00 0.00 61 1009.8
20260510030802 85 121 6.0 9.0 0.00 0.00 0.00 61 1009.8
20260510030704 85 151 5.0 9.0 0.00 0.00 0.00 61 1009.8
20260510030604 85 111 3.0 9.0 0.00 0.00 0.00 62 1009.8
20260510030506 85 123 1.0 8.0 0.00 0.00 0.00 62 1009.7
20260510030404 85 80 1.0 8.0 0.00 0.00 0.00 62 1009.7
20260510030303 85 127 3.0 8.0 0.00 0.00 0.00 62 1009.7
20260510030203 85 138 4.0 8.0 0.00 0.00 0.00 62 1009.7
20260510030104 85 153 5.0 8.0 0.00 0.00 0.00 62 1009.6
20260510030008 85 140 5.0 8.0 0.00 0.00 0.00 62 1009.6
20260510025903 85 148 4.0 7.0 0.00 0.00 0.00 62 1009.6
20260510025804 85 124 4.0 7.0 0.00 0.00 0.00 62 1009.5
20260510025704 85 167 4.0 7.0 0.00 0.00 0.00 62 1009.5
20260510025604 84 172 3.0 7.0 0.00 0.00 0.00 62 1009.5
20260510025402 84 164 3.0 6.0 0.00 0.00 0.00 62 1009.4
20260510025202 84 106 5.0 6.0 0.00 0.00 0.00 62 1009.4
20260510025105 84 98 5.0 6.0 0.00 0.00 0.00 62 1009.4
20260510025006 84 135 4.0 9.0 0.00 0.00 0.00 63 1009.4
20260510024904 84 167 3.0 9.0 0.00 0.00 0.00 63 1009.4
20260510024605 84 136 3.0 9.0 0.00 0.00 0.00 63 1009.4
20260510024506 84 146 4.0 9.0 0.00 0.00 0.00 63 1009.4
20260510024303 84 135 5.0 9.0 0.00 0.00 0.00 63 1009.3
20260510024205 84 102 5.0 9.0 0.00 0.00 0.00 62 1009.3
20260510024008 84 118 2.0 8.0 0.00 0.00 0.00 63 1009.3
20260510023805 84 125 2.0 8.0 0.00 0.00 0.00 63 1009.4
20260510023703 84 127 3.0 9.0 0.00 0.00 0.00 63 1009.3
20260510023603 83 41 4.0 9.0 0.00 0.00 0.00 63 1009.2
20260510023506 83 142 4.0 9.0 0.00 0.00 0.00 63 1009.2
20260510023306 83 105 5.0 9.0 0.00 0.00 0.00 63 1009.2
20260510023204 83 121 5.0 9.0 0.00 0.00 0.00 63 1009.2
20260510023102 83 112 5.0 9.0 0.00 0.00 0.00 63 1009.3
20260510023007 83 144 5.0 9.0 0.00 0.00 0.00 63 1009.1
20260510022906 83 115 4.0 9.0 0.00 0.00 0.00 63 1009.2
20260510022803 83 101 3.0 9.0 0.00 0.00 0.00 63 1009.2
20260510022701 83 101 4.0 9.0 0.00 0.00 0.00 63 1009.2
20260510022609 83 128 5.0 9.0 0.00 0.00 0.00 63 1009.2
20260510022404 83 99 3.0 9.0 0.00 0.00 0.00 63 1009.2
20260510022306 83 113 3.0 9.0 0.00 0.00 0.00 63 1009.1
20260510022204 83 101 3.0 9.0 0.00 0.00 0.00 63 1009.0
20260510022007 83 109 5.0 9.0 0.00 0.00 0.00 63 1009.1
20260510021905 83 115 5.0 9.0 0.00 0.00 0.00 63 1009.0
20260510021804 83 118 5.0 9.0 0.00 0.00 0.00 63 1009.0
20260510021704 83 87 5.0 9.0 0.00 0.00 0.00 63 1009.1
20260510021603 83 114 5.0 9.0 0.00 0.00 0.00 63 1009.0
20260510021507 83 115 5.0 9.0 0.00 0.00 0.00 63 1009.1
20260510021403 83 122 5.0 9.0 0.00 0.00 0.00 63 1009.0
20260510021302 83 111 6.0 9.0 0.00 0.00 0.00 63 1009.1
20260510021101 83 112 5.0 9.0 0.00 0.00 0.00 63 1009.0
20260510021006 83 105 4.0 8.0 0.00 0.00 0.00 63 1009.1
20260510020803 83 113 3.0 8.0 0.00 0.00 0.00 63 1009.1
20260510020504 83 105 3.0 8.0 0.00 0.00 0.00 63 1009.1
20260510020405 83 119 5.0 8.0 0.00 0.00 0.00 63 1009.1
20260510020302 83 123 4.0 8.0 0.00 0.00 0.00 63 1009.1
20260510020202 83 123 3.0 8.0 0.00 0.00 0.00 63 1009.1
20260510015902 83 103 4.0 10.0 0.00 0.00 0.00 63 1009.1
20260510015802 83 115 4.0 10.0 0.00 0.00 0.00 63 1009.1
20260510015703 83 125 4.0 10.0 0.00 0.00 0.00 63 1009.1
20260510015603 83 105 4.0 10.0 0.00 0.00 0.00 63 1009.1
20260510015403 83 125 4.0 10.0 0.00 0.00 0.00 63 1009.1
20260510015306 83 104 6.0 10.0 0.00 0.00 0.00 63 1009.1
20260510015205 83 134 5.0 10.0 0.00 0.00 0.00 63 1009.1
20260510015101 83 116 4.0 8.0 0.00 0.00 0.00 63 1009.1
20260510014804 83 146 5.0 9.0 0.00 0.00 0.00 63 1009.0
20260510014604 83 105 3.0 10.0 0.00 0.00 0.00 63 1008.9
20260510014505 83 150 3.0 10.0 0.00 0.00 0.00 63 1008.9
20260510014404 83 113 3.0 10.0 0.00 0.00 0.00 63 1008.9
20260510014305 82 117 5.0 10.0 0.00 0.00 0.00 63 1008.9
20260510014204 82 144 6.0 10.0 0.00 0.00 0.00 63 1008.8
20260510014008 82 123 5.0 10.0 0.00 0.00 0.00 64 1008.9
20260510013804 82 113 5.0 10.0 0.00 0.00 0.00 64 1008.8
20260510013703 82 103 4.0 9.0 0.00 0.00 0.00 64 1008.8
20260510013604 82 96 5.0 9.0 0.00 0.00 0.00 64 1008.8
20260510013506 82 100 6.0 9.0 0.00 0.00 0.00 64 1008.7
20260510013402 82 142 4.0 9.0 0.00 0.00 0.00 64 1008.6
20260510013304 82 143 4.0 9.0 0.00 0.00 0.00 65 1008.7
20260510013203 82 135 4.0 8.0 0.00 0.00 0.00 64 1008.7
20260510013102 82 112 5.0 8.0 0.00 0.00 0.00 65 1008.7
20260510013005 82 128 6.0 8.0 0.00 0.00 0.00 65 1008.6
20260510012904 82 114 6.0 8.0 0.00 0.00 0.00 65 1008.6
20260510012802 82 107 6.0 8.0 0.00 0.00 0.00 65 1008.7
20260510012702 82 92 4.0 8.0 0.00 0.00 0.00 65 1008.7
20260510012602 82 112 4.0 8.0 0.00 0.00 0.00 65 1008.7
20260510012506 82 105 3.0 8.0 0.00 0.00 0.00 65 1008.6
20260510012402 82 115 3.0 8.0 0.00 0.00 0.00 65 1008.7
20260510012306 82 98 4.0 8.0 0.00 0.00 0.00 66 1008.6
20260510012203 82 165 4.0 8.0 0.00 0.00 0.00 66 1008.6
20260510012105 82 101 4.0 8.0 0.00 0.00 0.00 66 1008.6
20260510011903 82 96 2.0 7.0 0.00 0.00 0.00 66 1008.9
20260510011604 82 98 4.0 7.0 0.00 0.00 0.00 66 1008.5
20260510011505 82 99 3.0 7.0 0.00 0.00 0.00 66 1008.6
20260510011404 82 99 4.0 7.0 0.00 0.00 0.00 66 1008.5
20260510011304 82 84 4.0 7.0 0.00 0.00 0.00 66 1008.6
20260510011204 82 92 3.0 7.0 0.00 0.00 0.00 67 1008.5
20260510011104 81 49 3.0 6.0 0.00 0.00 0.00 67 1008.5
20260510011007 81 108 2.0 4.0 0.00 0.00 0.00 67 1008.4
20260510010803 81 95 2.0 4.0 0.00 0.00 0.00 67 1008.5
20260510010603 81 112 2.0 4.0 0.00 0.00 0.00 67 1008.4
20260510010507 81 69 2.0 4.0 0.00 0.00 0.00 67 1008.4
20260510010404 81 98 2.0 4.0 0.00 0.00 0.00 67 1008.5
20260510010303 81 73 3.0 4.0 0.00 0.00 0.00 67 1008.4
20260510010202 81 112 2.0 4.0 0.00 0.00 0.00 67 1008.4
20260510010104 81 92 1.0 4.0 0.00 0.00 0.00 67 1008.5
20260510010008 81 106 1.0 4.0 0.00 0.00 0.00 68 1008.4
20260510005903 81 116 0.0 4.0 0.00 0.00 0.00 68 1008.3
20260510005801 81 113 1.0 4.0 0.00 0.00 0.00 68 1008.3
20260510005505 81 84 2.0 4.0 0.00 0.00 0.00 68 1008.3
20260510005405 81 98 2.0 4.0 0.00 0.00 0.00 68 1008.3
20260510005005 81 90 0.0 4.0 0.00 0.00 0.00 68 1008.3
20260510004903 81 115 1.0 4.0 0.00 0.00 0.00 68 1008.4
20260510004804 81 79 2.0 4.0 0.00 0.00 0.00 68 1008.4
20260510004704 81 101 1.0 4.0 0.00 0.00 0.00 68 1008.4
20260510004604 81 108 1.0 4.0 0.00 0.00 0.00 68 1008.3
20260510004402 81 84 1.0 4.0 0.00 0.00 0.00 68 1008.4
20260510004304 81 88 1.0 4.0 0.00 0.00 0.00 68 1008.4
20260510004204 81 115 2.0 4.0 0.00 0.00 0.00 68 1008.3
20260510004008 81 103 2.0 4.0 0.00 0.00 0.00 68 1008.3
20260510003904 81 105 1.0 4.0 0.00 0.00 0.00 68 1008.3
20260510003802 81 108 1.0 4.0 0.00 0.00 0.00 68 1008.3
20260510003702 81 112 1.0 4.0 0.00 0.00 0.00 68 1008.3
20260510003603 81 105 1.0 4.0 0.00 0.00 0.00 68 1008.2
20260510003508 81 64 1.0 4.0 0.00 0.00 0.00 68 1008.3
20260510003404 81 121 2.0 4.0 0.00 0.00 0.00 68 1008.3
20260510003303 81 132 2.0 4.0 0.00 0.00 0.00 68 1008.3
20260510003204 81 132 2.0 4.0 0.00 0.00 0.00 68 1008.4
20260510003103 81 145 2.0 4.0 0.00 0.00 0.00 68 1008.4
20260510002903 81 115 1.0 3.0 0.00 0.00 0.00 68 1008.4
20260510002703 81 92 1.0 2.0 0.00 0.00 0.00 68 1008.4
20260510002603 81 48 1.0 2.0 0.00 0.00 0.00 69 1008.4
20260510002504 81 107 1.0 2.0 0.00 0.00 0.00 69 1008.4
20260510002404 81 92 1.0 2.0 0.00 0.00 0.00 69 1008.4
20260510002306 81 144 1.0 2.0 0.00 0.00 0.00 69 1008.5
20260510002205 81 108 1.0 2.0 0.00 0.00 0.00 69 1008.4
20260510002006 81 144 1.0 2.0 0.00 0.00 0.00 69 1008.4
20260510001802 81 161 1.0 3.0 0.00 0.00 0.00 69 1008.5
20260510001703 81 135 0.0 3.0 0.00 0.00 0.00 69 1008.4
20260510001603 81 111 0.0 3.0 0.00 0.00 0.00 69 1008.4
20260510001401 81 82 0.0 3.0 0.00 0.00 0.00 69 1008.4
20260510001303 81 132 0.0 3.0 0.00 0.00 0.00 69 1008.5
20260510001204 81 113 1.0 3.0 0.00 0.00 0.00 69 1008.5
20260510001103 81 127 1.0 3.0 0.00 0.00 0.00 69 1008.5
20260510001005 81 107 2.0 3.0 0.00 0.00 0.00 69 1008.4
20260510000804 81 119 1.0 2.0 0.00 0.00 0.00 69 1008.4
20260510000701 81 83 1.0 3.0 0.00 0.00 0.00 69 1008.4
20260510000504 81 111 1.0 3.0 0.00 0.00 0.00 69 1008.4
20260510000404 81 114 1.0 3.0 0.00 0.00 0.00 69 1008.4
20260510000304 81 103 1.0 3.0 0.00 0.00 0.00 69 1008.4
20260510000204 81 86 1.0 3.0 0.00 0.00 0.00 68 1008.4
20260510000007 81 69 1.0 3.0 0.00 0.00 0.00 68 1008.3
20260509235903 81 98 2.0 3.0 0.00 0.00 0.00 68 1008.3
20260509235802 81 65 1.0 3.0 0.00 0.00 0.00 68 1008.3
20260509235702 81 96 1.0 3.0 0.00 0.00 0.00 68 1008.3
20260509235505 81 96 1.0 3.0 0.00 0.00 0.00 68 1008.4
20260509235402 81 108 1.0 3.0 0.00 0.00 0.00 68 1008.3
20260509235306 81 112 2.0 3.0 0.00 0.00 0.00 68 1008.3
20260509235103 81 98 1.0 3.0 0.00 0.00 0.00 68 1008.3
20260509235004 81 55 1.0 3.0 0.00 0.00 0.00 68 1008.4
20260509234902 81 76 1.0 3.0 0.00 0.00 0.00 68 1008.3
20260509234804 81 101 1.0 3.0 0.00 0.00 0.00 68 1008.3
20260509234703 81 96 1.0 3.0 0.00 0.00 0.00 68 1008.2
20260509234602 81 129 1.0 3.0 0.00 0.00 0.00 68 1008.3
20260509234504 81 120 1.0 3.0 0.00 0.00 0.00 68 1008.3
20260509234402 81 126 0.0 3.0 0.00 0.00 0.00 68 1008.3
20260509234301 81 103 1.0 3.0 0.00 0.00 0.00 68 1008.3
20260509233803 82 127 0.0 3.0 0.00 0.00 0.00 68 1008.2
20260509233702 82 80 0.0 3.0 0.00 0.00 0.00 68 1008.2
20260509233602 82 86 1.0 3.0 0.00 0.00 0.00 68 1008.2
20260509233504 81 104 1.0 3.0 0.00 0.00 0.00 68 1008.2
20260509233402 82 68 1.0 3.0 0.00 0.00 0.00 68 1008.2
20260509233303 82 91 1.0 3.0 0.00 0.00 0.00 68 1008.1
20260509233101 82 53 1.0 3.0 0.00 0.00 0.00 68 1008.2
20260509233005 82 78 1.0 3.0 0.00 0.00 0.00 68 1008.2
20260509232902 82 74 1.0 3.0 0.00 0.00 0.00 68 1008.2
20260509232803 82 86 1.0 3.0 0.00 0.00 0.00 68 1008.2
20260509232702 81 83 1.0 3.0 0.00 0.00 0.00 68 1008.2
20260509232602 82 98 1.0 4.0 0.00 0.00 0.00 68 1008.2
20260509232503 82 102 1.0 4.0 0.00 0.00 0.00 68 1008.1
20260509232403 82 65 1.0 4.0 0.00 0.00 0.00 68 1008.1
20260509232305 82 55 1.0 4.0 0.00 0.00 0.00 68 1008.1
20260509232203 82 81 0.0 4.0 0.00 0.00 0.00 68 1008.1
20260509232101 82 128 1.0 4.0 0.00 0.00 0.00 68 1008.2
20260509232005 82 83 1.0 4.0 0.00 0.00 0.00 68 1008.1
20260509231803 82 69 2.0 4.0 0.00 0.00 0.00 68 1008.1
20260509231702 82 71 1.0 4.0 0.00 0.00 0.00 68 1008.1
20260509231602 82 86 1.0 4.0 0.00 0.00 0.00 68 1008.1
20260509231403 82 58 0.0 4.0 0.00 0.00 0.00 68 1008.2
20260509231302 82 81 0.0 4.0 0.00 0.00 0.00 68 1008.1
20260509231202 82 72 1.0 4.0 0.00 0.00 0.00 68 1008.1
20260509231103 82 98 2.0 4.0 0.00 0.00 0.00 68 1008.1
20260509231004 82 75 2.0 4.0 0.00 0.00 0.00 68 1008.1
20260509230901 82 75 1.0 4.0 0.00 0.00 0.00 68 1008.0
20260509230803 82 72 2.0 4.0 0.00 0.00 0.00 68 1008.0
20260509230702 82 94 2.0 4.0 0.00 0.00 0.00 68 1008.0
20260509230604 82 98 2.0 4.0 0.00 0.00 0.00 68 1008.0
20260509230504 82 70 1.0 4.0 0.00 0.00 0.00 68 1008.0
20260509230402 82 68 1.0 4.0 0.00 0.00 0.00 68 1008.0
20260509230302 82 86 0.0 4.0 0.00 0.00 0.00 68 1008.0
20260509230203 81 73 0.0 4.0 0.00 0.00 0.00 68 1008.0
20260509230009 82 69 1.0 4.0 0.00 0.00 0.00 68 1008.0
20260509225902 82 67 1.0 4.0 0.00 0.00 0.00 68 1008.0
20260509225802 82 123 1.0 4.0 0.00 0.00 0.00 68 1007.8
20260509225702 82 43 2.0 4.0 0.00 0.00 0.00 68 1007.8
20260509225602 81 80 2.0 4.0 0.00 0.00 0.00 68 1007.8
20260509225401 82 60 2.0 4.0 0.00 0.00 0.00 68 1007.7
20260509225305 82 83 1.0 4.0 0.00 0.00 0.00 68 1007.8
20260509225202 82 57 1.0 4.0 0.00 0.00 0.00 68 1007.8
20260509225006 82 38 1.0 4.0 0.00 0.00 0.00 68 1007.8
20260509224902 81 70 1.0 4.0 0.00 0.00 0.00 68 1007.8
20260509224802 81 83 1.0 4.0 0.00 0.00 0.00 68 1007.7
20260509224703 81 76 1.0 4.0 0.00 0.00 0.00 68 1007.7
20260509224602 81 76 1.0 4.0 0.00 0.00 0.00 68 1007.8
20260509224504 81 46 1.0 4.0 0.00 0.00 0.00 68 1007.8
20260509224403 81 53 1.0 4.0 0.00 0.00 0.00 68 1007.8
20260509224303 81 56 1.0 4.0 0.00 0.00 0.00 68 1007.8
20260509224201 81 49 2.0 4.0 0.00 0.00 0.00 68 1007.8
20260509224006 81 98 1.0 4.0 0.00 0.00 0.00 68 1007.8
20260509223904 81 100 1.0 4.0 0.00 0.00 0.00 68 1007.8
20260509223802 81 80 1.0 4.0 0.00 0.00 0.00 68 1007.8
20260509223703 81 51 1.0 4.0 0.00 0.00 0.00 68 1007.8
20260509223603 81 15 1.0 4.0 0.00 0.00 0.00 68 1007.8
20260509223403 81 89 2.0 3.0 0.00 0.00 0.00 68 1007.7
20260509223302 81 86 2.0 3.0 0.00 0.00 0.00 68 1007.7
20260509223202 81 65 1.0 4.0 0.00 0.00 0.00 68 1007.7
20260509223103 81 24 1.0 4.0 0.00 0.00 0.00 68 1007.7
20260509223007 81 63 1.0 4.0 0.00 0.00 0.00 68 1007.7
20260509222901 81 49 1.0 5.0 0.00 0.00 0.00 68 1007.7
20260509222802 81 78 1.0 5.0 0.00 0.00 0.00 68 1007.7
20260509222703 81 101 1.0 5.0 0.00 0.00 0.00 68 1007.8
20260509222603 81 121 1.0 5.0 0.00 0.00 0.00 68 1007.8
20260509222504 81 73 2.0 5.0 0.00 0.00 0.00 68 1007.7
20260509222302 81 90 2.0 5.0 0.00 0.00 0.00 68 1007.7
20260509222203 81 103 3.0 5.0 0.00 0.00 0.00 68 1007.7
20260509222102 81 69 2.0 5.0 0.00 0.00 0.00 68 1007.7
20260509222007 81 73 2.0 4.0 0.00 0.00 0.00 68 1007.7
20260509221902 81 65 2.0 4.0 0.00 0.00 0.00 68 1007.8
20260509221702 81 91 2.0 4.0 0.00 0.00 0.00 68 1007.8
20260509221602 81 60 2.0 4.0 0.00 0.00 0.00 68 1007.7
20260509221503 81 83 1.0 3.0 0.00 0.00 0.00 68 1007.8
20260509221401 81 71 1.0 3.0 0.00 0.00 0.00 68 1007.8
20260509221202 81 65 1.0 3.0 0.00 0.00 0.00 68 1007.8
20260509221102 81 55 1.0 3.0 0.00 0.00 0.00 68 1007.8
20260509221004 81 71 1.0 3.0 0.00 0.00 0.00 68 1007.8
20260509220901 81 75 2.0 3.0 0.00 0.00 0.00 68 1007.8
20260509220802 81 80 2.0 3.0 0.00 0.00 0.00 68 1007.8
20260509220704 81 61 2.0 3.0 0.00 0.00 0.00 68 1007.8
20260509220603 81 54 2.0 3.0 0.00 0.00 0.00 68 1007.7
20260509220402 81 72 1.0 3.0 0.00 0.00 0.00 68 1007.7
20260509220302 81 68 1.0 3.0 0.00 0.00 0.00 68 1007.8
20260509220205 81 43 1.0 3.0 0.00 0.00 0.00 68 1007.9
20260509220010 81 101 1.0 3.0 0.00 0.00 0.00 68 1007.8
20260509215902 81 67 1.0 3.0 0.00 0.00 0.00 68 1007.8
20260509215702 81 105 1.0 3.0 0.00 0.00 0.00 68 1007.8
20260509215603 81 104 1.0 3.0 0.00 0.00 0.00 68 1007.8
20260509215506 81 99 1.0 3.0 0.00 0.00 0.00 68 1007.7
20260509215403 81 74 1.0 3.0 0.00 0.00 0.00 68 1007.8
20260509215202 81 104 1.0 3.0 0.00 0.00 0.00 68 1007.7
20260509215102 81 116 1.0 3.0 0.00 0.00 0.00 68 1007.8
20260509215005 81 74 2.0 3.0 0.00 0.00 0.00 68 1007.7
20260509214903 81 66 2.0 3.0 0.00 0.00 0.00 68 1007.8
20260509214801 81 69 2.0 3.0 0.00 0.00 0.00 68 1007.8
20260509214702 81 55 2.0 3.0 0.00 0.00 0.00 68 1007.8
20260509214603 81 70 2.0 3.0 0.00 0.00 0.00 68 1007.8
20260509214504 81 61 1.0 3.0 0.00 0.00 0.00 68 1007.8
20260509214403 81 44 1.0 3.0 0.00 0.00 0.00 68 1007.8
20260509214303 81 51 1.0 3.0 0.00 0.00 0.00 68 1007.7
20260509214203 81 51 1.0 3.0 0.00 0.00 0.00 68 1007.7
20260509214102 81 40 2.0 3.0 0.00 0.00 0.00 68 1007.8
20260509214005 81 61 2.0 3.0 0.00 0.00 0.00 68 1007.8
20260509213903 81 44 2.0 3.0 0.00 0.00 0.00 68 1007.8
20260509213801 81 63 1.0 3.0 0.00 0.00 0.00 68 1007.8
20260509213701 81 49 1.0 3.0 0.00 0.00 0.00 68 1007.7
20260509213603 81 52 1.0 3.0 0.00 0.00 0.00 68 1007.7
20260509213504 81 93 1.0 4.0 0.00 0.00 0.00 68 1007.7
20260509213401 81 90 2.0 5.0 0.00 0.00 0.00 68 1007.7
20260509213302 81 74 1.0 5.0 0.00 0.00 0.00 68 1007.7
20260509213106 81 40 2.0 5.0 0.00 0.00 0.00 68 1007.7
20260509212901 81 48 2.0 5.0 0.00 0.00 0.00 68 1007.7
20260509212805 81 45 3.0 5.0 0.00 0.00 0.00 68 1007.7
20260509212703 81 59 3.0 5.0 0.00 0.00 0.00 68 1007.7
20260509212602 81 44 3.0 5.0 0.00 0.00 0.00 68 1007.7
20260509212503 81 51 4.0 5.0 0.00 0.00 0.00 68 1007.7
20260509212306 81 45 3.0 5.0 0.00 0.00 0.00 68 1007.7
20260509212100 81 60 4.0 6.0 0.00 0.00 0.00 67 1007.8
20260509212006 81 72 4.0 6.0 0.00 0.00 0.00 67 1007.8
20260509211900 81 53 4.0 6.0 0.00 0.00 0.00 67 1007.7
20260509211803 82 48 4.0 6.0 0.00 0.00 0.00 67 1007.7
20260509211704 82 46 4.0 6.0 0.00 0.00 0.00 67 1007.7
20260509211603 82 57 4.0 6.0 0.00 0.00 0.00 66 1007.7
20260509211505 82 71 4.0 6.0 0.00 0.00 0.00 66 1007.7
20260509211403 82 61 3.0 6.0 0.00 0.00 0.00 66 1007.7
20260509211302 82 57 2.0 5.0 0.00 0.00 0.00 66 1007.7
20260509211203 82 56 2.0 4.0 0.00 0.00 0.00 66 1007.7
20260509211101 82 15 2.0 4.0 0.00 0.00 0.00 66 1007.7
20260509210803 82 29 1.0 3.0 0.00 0.00 0.00 66 1007.7
20260509210703 82 49 1.0 3.0 0.00 0.00 0.00 66 1007.6
20260509210604 82 30 2.0 3.0 0.00 0.00 0.00 65 1007.7
20260509210504 82 26 2.0 4.0 0.00 0.00 0.00 65 1007.7
20260509210403 82 42 2.0 4.0 0.00 0.00 0.00 65 1007.7
20260509210303 82 33 2.0 4.0 0.00 0.00 0.00 65 1007.7
20260509210204 82 46 2.0 4.0 0.00 0.00 0.00 65 1007.7
20260509210007 82 47 2.0 4.0 0.00 0.00 0.00 65 1007.7
20260509205903 82 40 2.0 4.0 0.00 0.00 0.00 65 1007.6
20260509205803 83 41 2.0 4.0 0.00 0.00 0.00 65 1007.6
20260509205704 83 48 3.0 4.0 0.00 0.00 0.00 64 1007.6
20260509205604 83 42 2.0 4.0 0.00 0.00 0.00 64 1007.7
20260509205503 83 40 1.0 2.0 0.00 0.00 0.00 64 1007.6
20260509205401 83 5 0.0 2.0 0.00 0.00 0.00 64 1007.7
20260509205307 83 23 1.0 3.0 0.00 0.00 0.00 64 1007.7
20260509205202 83 24 1.0 3.0 0.00 0.00 0.00 64 1007.6
20260509205105 83 24 1.0 3.0 0.00 0.00 0.00 64 1007.6
20260509205005 83 351 1.0 3.0 0.00 0.00 0.00 64 1007.7
20260509204903 83 34 1.0 3.0 0.00 0.00 0.00 64 1007.7
20260509204804 83 14 1.0 3.0 0.00 0.00 0.00 63 1007.7
20260509204704 83 20 1.0 3.0 0.00 0.00 0.00 63 1007.6
20260509204603 83 9 2.0 3.0 0.00 0.00 0.00 63 1007.6
20260509204402 84 60 2.0 3.0 0.00 0.00 0.00 63 1007.6
20260509204304 84 50 1.0 3.0 0.00 0.00 0.00 63 1007.6
20260509204203 84 19 0.0 3.0 0.00 0.00 0.00 63 1007.6
20260509204104 84 26 1.0 3.0 0.00 0.00 0.00 63 1007.7
20260509204008 84 32 1.0 3.0 0.00 0.00 0.00 62 1007.7
20260509203902 84 22 1.0 3.0 0.00 0.00 0.00 62 1007.7
20260509203802 84 24 1.0 2.0 0.00 0.00 0.00 62 1007.7
20260509203703 84 5 0.0 2.0 0.00 0.00 0.00 63 1007.6
20260509203505 84 5 0.0 3.0 0.00 0.00 0.00 62 1007.7
20260509203403 84 5 0.0 3.0 0.00 0.00 0.00 62 1007.7
20260509203302 84 20 0.0 3.0 0.00 0.00 0.00 62 1007.7
20260509203204 84 34 0.0 3.0 0.00 0.00 0.00 62 1007.7
20260509203103 84 63 1.0 3.0 0.00 0.00 0.00 61 1007.8
20260509203005 84 73 2.0 3.0 0.00 0.00 0.00 61 1007.8
20260509202903 84 61 2.0 3.0 0.00 0.00 0.00 61 1007.8
20260509202803 84 65 1.0 3.0 0.00 0.00 0.00 61 1007.8
20260509202704 84 69 2.0 3.0 0.00 0.00 0.00 61 1007.8
20260509202601 84 70 2.0 3.0 0.00 0.00 0.00 61 1007.8
20260509202506 84 53 2.0 3.0 0.00 0.00 0.00 61 1007.8
20260509202402 84 56 1.0 3.0 0.00 0.00 0.00 61 1007.7
20260509202204 84 45 1.0 2.0 0.00 0.00 0.00 61 1007.7
20260509202104 84 46 1.0 2.0 0.00 0.00 0.00 61 1007.8
20260509202007 85 48 1.0 2.0 0.00 0.00 0.00 61 1007.8
20260509201902 85 57 1.0 2.0 0.00 0.00 0.00 60 1007.8
20260509201804 85 9 1.0 2.0 0.00 0.00 0.00 60 1007.8
20260509201705 85 9 1.0 2.0 0.00 0.00 0.00 60 1007.8
20260509201506 85 5 1.0 2.0 0.00 0.00 0.00 60 1007.8
20260509201402 85 5 1.0 2.0 0.00 0.00 0.00 60 1007.8
20260509201303 85 5 1.0 2.0 0.00 0.00 0.00 60 1007.8
20260509201203 85 355 1.0 2.0 0.00 0.00 0.00 60 1007.8
20260509201104 85 355 0.0 2.0 0.00 0.00 0.00 60 1007.8
20260509200903 85 65 1.0 2.0 0.00 0.00 0.00 60 1007.8
20260509200804 85 65 1.0 2.0 0.00 0.00 0.00 60 1007.7
20260509200703 85 47 0.0 1.0 0.00 0.00 0.00 59 1007.8
20260509200506 85 144 0.0 1.0 0.00 0.00 0.00 59 1007.8
20260509200403 85 144 0.0 1.0 0.00 0.00 0.00 59 1007.8
20260509200301 85 144 0.0 1.0 0.00 0.00 0.00 59 1007.8
20260509200201 85 144 0.0 2.0 0.00 0.00 0.00 59 1007.8
20260509200004 85 144 0.0 2.0 0.00 0.00 0.00 59 1007.8
20260509195859 85 144 0.0 3.0 0.00 0.00 0.00 58 1007.9
20260509195800 85 144 0.0 3.0 0.00 0.00 0.00 58 1007.9
20260509195701 85 144 0.0 3.0 0.00 0.00 0.00 58 1007.9
20260509195504 85 144 0.0 3.0 0.00 0.00 0.00 58 1008.0
20260509195400 85 117 1.0 3.0 0.00 0.00 0.00 58 1008.0
20260509195301 85 141 1.0 3.0 0.00 0.00 0.00 58 1007.9
20260509195203 85 124 1.0 3.0 0.00 0.00 0.00 58 1007.9
20260509195006 85 112 1.0 3.0 0.00 0.00 0.00 58 1008.0
20260509194801 85 77 1.0 2.0 0.00 0.00 0.00 58 1008.0
20260509194702 85 101 1.0 2.0 0.00 0.00 0.00 58 1007.9
20260509194503 86 86 1.0 2.0 0.00 0.00 0.00 58 1008.0
20260509194403 86 90 0.0 2.0 0.00 0.00 0.00 58 1008.0
20260509194305 86 73 0.0 2.0 0.00 0.00 0.00 58 1008.1
20260509194203 86 71 1.0 2.0 0.00 0.00 0.00 58 1008.1
20260509194009 86 75 1.0 2.0 0.00 0.00 0.00 58 1008.1
20260509193600 86 73 0.0 3.0 0.00 0.00 0.00 58 1008.2
20260509193505 86 95 1.0 3.0 0.00 0.00 0.00 57 1008.2
20260509193402 86 88 1.0 3.0 0.00 0.00 0.00 57 1008.3
20260509193303 86 90 1.0 3.0 0.00 0.00 0.00 57 1008.1
20260509193202 86 18 1.0 3.0 0.00 0.00 0.00 57 1008.2
20260509193101 86 82 1.0 3.0 0.00 0.00 0.00 57 1008.2
20260509193006 86 76 1.0 3.0 0.00 0.00 0.00 58 1008.2
20260509192903 86 52 1.0 3.0 0.00 0.00 0.00 58 1008.2
20260509192802 86 54 1.0 4.0 0.00 0.00 0.00 57 1008.2
20260509192702 86 70 1.0 4.0 0.00 0.00 0.00 57 1008.2
20260509192600 86 91 0.0 4.0 0.00 0.00 0.00 57 1008.3
20260509192508 86 97 0.0 4.0 0.00 0.00 0.00 57 1008.3
20260509192305 87 61 2.0 4.0 0.00 0.00 0.00 57 1008.3
20260509192203 87 59 2.0 4.0 0.00 0.00 0.00 57 1008.2
20260509192103 87 73 3.0 4.0 0.00 0.00 0.00 57 1008.3
20260509192009 87 46 2.0 4.0 0.00 0.00 0.00 56 1008.3
20260509191901 87 51 0.0 3.0 0.00 0.00 0.00 55 1008.4
20260509191803 87 107 0.0 3.0 0.00 0.00 0.00 55 1008.3
20260509191701 87 123 1.0 3.0 0.00 0.00 0.00 55 1008.4
20260509191603 87 163 1.0 3.0 0.00 0.00 0.00 55 1008.3
20260509191503 87 153 0.0 3.0 0.00 0.00 0.00 55 1008.4
20260509191402 87 153 0.0 3.0 0.00 0.00 0.00 55 1008.5
20260509191103 87 157 2.0 4.0 0.00 0.00 0.00 55 1008.4
20260509191007 87 115 1.0 4.0 0.00 0.00 0.00 55 1008.4
20260509190801 87 173 1.0 4.0 0.00 0.00 0.00 55 1008.4
20260509190722 87 152 2.0 4.0 0.00 0.00 0.00 55 1008.4
20260509190303 87 178 2.0 6.0 0.00 0.00 0.00 54 1008.4
20260509190204 87 171 3.0 6.0 0.00 0.00 0.00 55 1008.5
20260509190058 87 169 2.0 6.0 0.00 0.00 0.00 55 1008.5
20260509190007 87 173 2.0 6.0 0.00 0.00 0.00 54 1008.5
20260509185904 87 171 2.0 6.0 0.00 0.00 0.00 54 1008.5
20260509185804 87 182 2.0 6.0 0.00 0.00 0.00 54 1008.5
20260509185704 87 161 2.0 6.0 0.00 0.00 0.00 54 1008.5
20260509185605 87 163 3.0 6.0 0.00 0.00 0.00 54 1008.6
20260509185505 87 157 3.0 6.0 0.00 0.00 0.00 54 1008.5
20260509185403 87 184 3.0 6.0 0.00 0.00 0.00 54 1008.5
20260509185306 87 177 3.0 6.0 0.00 0.00 0.00 54 1008.5
20260509185203 87 167 4.0 6.0 0.00 0.00 0.00 54 1008.5
20260509185107 87 184 4.0 6.0 0.00 0.00 0.00 54 1008.4
20260509185007 87 176 3.0 5.0 0.00 0.00 0.00 54 1008.5
20260509184904 87 168 4.0 5.0 0.00 0.00 0.00 54 1008.5
20260509184803 87 188 4.0 6.0 0.00 0.00 0.00 54 1008.5
20260509184604 87 169 3.0 5.0 0.00 0.00 0.00 54 1008.5
20260509184504 87 172 3.0 5.0 0.00 0.00 0.00 54 1008.5
20260509184405 87 163 3.0 5.0 0.00 0.00 0.00 54 1008.5
20260509184303 87 180 3.0 5.0 0.00 0.00 0.00 54 1008.5
20260509184204 87 154 3.0 5.0 0.00 0.00 0.00 54 1008.6
20260509184104 87 175 3.0 6.0 0.00 0.00 0.00 54 1008.6
20260509184007 87 165 3.0 5.0 0.00 0.00 0.00 54 1008.5
20260509183904 87 162 3.0 5.0 0.00 0.00 0.00 54 1008.6
20260509183803 88 165 4.0 6.0 0.00 0.00 0.00 54 1008.5
20260509183705 88 184 3.0 5.0 0.00 0.00 0.00 54 1008.5
20260509183605 88 167 3.0 5.0 0.00 0.00 0.00 54 1008.6
20260509183505 88 165 3.0 5.0 0.00 0.00 0.00 54 1008.5
20260509183404 88 185 3.0 5.0 0.00 0.00 0.00 54 1008.6
20260509183304 88 171 3.0 5.0 0.00 0.00 0.00 54 1008.6
20260509183203 88 142 4.0 5.0 0.00 0.00 0.00 54 1008.6
20260509183105 88 192 4.0 6.0 0.00 0.00 0.00 54 1008.6
20260509183008 88 159 4.0 6.0 0.00 0.00 0.00 54 1008.6
20260509182803 88 175 4.0 6.0 0.00 0.00 0.00 54 1008.6
20260509182704 88 161 4.0 6.0 0.00 0.00 0.00 54 1008.7
20260509182604 88 165 4.0 6.0 0.00 0.00 0.00 54 1008.6
20260509182405 88 180 4.0 5.0 0.00 0.00 0.00 54 1008.6
20260509182306 88 169 4.0 5.0 0.00 0.00 0.00 54 1008.6
20260509182009 88 189 3.0 5.0 0.00 0.00 0.00 54 1008.5
20260509181803 88 168 3.0 5.0 0.00 0.00 0.00 53 1008.6
20260509181704 88 168 3.0 5.0 0.00 0.00 0.00 53 1008.6
20260509181604 88 159 3.0 5.0 0.00 0.00 0.00 53 1008.6
20260509181506 88 182 2.0 5.0 0.00 0.00 0.00 53 1008.5
20260509181406 88 167 2.0 7.0 0.00 0.00 0.00 53 1008.6
20260509181304 88 161 3.0 7.0 0.00 0.00 0.00 53 1008.6
20260509181204 88 157 3.0 7.0 0.00 0.00 0.00 53 1008.6
20260509181103 88 165 3.0 7.0 0.00 0.00 0.00 53 1008.6
20260509181007 88 140 3.0 7.0 0.00 0.00 0.00 53 1008.6
20260509180803 88 155 3.0 9.0 0.00 0.00 0.00 53 1008.6
20260509180703 88 167 3.0 9.0 0.00 0.00 0.00 53 1008.6
20260509180603 88 148 3.0 9.0 0.00 0.00 0.00 53 1008.7
20260509180506 88 156 3.0 9.0 0.00 0.00 0.00 53 1008.8
20260509180404 88 173 4.0 9.0 0.00 0.00 0.00 53 1008.6
20260509180304 88 163 3.0 9.0 0.00 0.00 0.00 53 1008.7
20260509180204 88 165 3.0 9.0 0.00 0.00 0.00 53 1008.8
20260509180104 88 159 4.0 9.0 0.00 0.00 0.00 53 1008.6
20260509175903 88 142 4.0 7.0 0.00 0.00 0.00 53 1008.7
20260509175804 88 167 4.0 7.0 0.00 0.00 0.00 53 1008.7
20260509175703 88 174 4.0 7.0 0.00 0.00 0.00 52 1008.6
20260509175605 88 150 4.0 8.0 0.00 0.00 0.00 52 1008.7
20260509175505 88 182 3.0 8.0 0.00 0.00 0.00 52 1008.6
20260509175204 89 171 5.0 8.0 0.00 0.00 0.00 52 1008.6
20260509175103 89 159 4.0 8.0 0.00 0.00 0.00 52 1008.7
20260509175006 89 140 3.0 8.0 0.00 0.00 0.00 52 1008.6
20260509174903 89 171 3.0 8.0 0.00 0.00 0.00 52 1008.7
20260509174805 89 133 4.0 8.0 0.00 0.00 0.00 52 1008.6
20260509174704 89 167 5.0 8.0 0.00 0.00 0.00 52 1008.7
20260509174505 89 170 3.0 8.0 0.00 0.00 0.00 52 1008.6
20260509174404 89 158 4.0 8.0 0.00 0.00 0.00 52 1008.7
20260509174103 89 144 4.0 8.0 0.00 0.00 0.00 52 1008.7
20260509174006 89 151 4.0 8.0 0.00 0.00 0.00 52 1008.8
20260509173804 89 175 4.0 9.0 0.00 0.00 0.00 52 1008.8
20260509173704 89 169 3.0 9.0 0.00 0.00 0.00 52 1008.8
20260509173604 89 166 3.0 9.0 0.00 0.00 0.00 52 1008.8
20260509173506 89 134 4.0 9.0 0.00 0.00 0.00 52 1008.7
20260509173404 89 144 4.0 9.0 0.00 0.00 0.00 52 1008.8
20260509173304 89 159 4.0 9.0 0.00 0.00 0.00 52 1008.8